Time,TemperatureF,DewpointF,PressureIn,WindDirection,WindDirectionDegrees,WindSpeedMPH,WindSpeedGustMPH,Humidity,HourlyPrecipIn,Conditions,Clouds,dailyrainin,SoftwareType,DateUTC
2013-01-18 00:00:00,38.7,27.9,30.22,NNE,24,0.0,0.0,65,0.00,RA,,0.00,WeatherDisplay:10.37,2013-01-18 08:00:00,
2013-01-18 00:04:00,38.6,27.8,30.22,NNE,24,0.0,0.0,65,0.00,RA,,0.00,WeatherDisplay:10.37,2013-01-18 08:04:00,
2013-01-18 00:05:00,38.6,27.8,30.22,NNE,24,0.0,0.0,65,0.00,RA,,0.00,WeatherDisplay:10.37,2013-01-18 08:05:00,
2013-01-18 00:09:00,38.6,27.8,30.22,NNE,24,0.0,0.0,65,0.00,RA,,0.00,WeatherDisplay:10.37,2013-01-18 08:09:00,
2013-01-18 00:10:00,38.5,27.7,30.22,NNE,24,0.0,0.0,65,0.00,SCT,,0.00,WeatherDisplay:10.37,2013-01-18 08:10:00,
2013-01-18 00:14:00,38.4,28.0,30.22,NNE,24,0.0,0.0,66,0.00,SCT,,0.00,WeatherDisplay:10.37,2013-01-18 08:14:00,
2013-01-18 00:15:00,38.4,27.7,30.22,NNE,24,0.0,0.0,65,0.00,SCT,,0.00,WeatherDisplay:10.37,2013-01-18 08:15:00,
2013-01-18 00:19:00,38.3,27.6,30.22,NNE,24,0.0,0.0,65,0.00,SCT,,0.00,WeatherDisplay:10.37,2013-01-18 08:19:00,
2013-01-18 00:20:00,38.3,27.6,30.22,NNE,24,0.0,0.0,65,0.00,SCT,,0.00,WeatherDisplay:10.37,2013-01-18 08:20:00,
2013-01-18 00:24:00,38.2,27.8,30.22,NNE,24,0.0,0.0,66,0.00,SCT,,0.00,WeatherDisplay:10.37,2013-01-18 08:24:00,
2013-01-18 00:25:00,38.2,27.8,30.22,NNE,24,0.0,0.0,66,0.00,SCT,,0.00,WeatherDisplay:10.37,2013-01-18 08:25:00,
2013-01-18 00:26:00,38.2,27.5,30.22,NNE,24,0.0,0.0,65,0.00,SCT,,0.00,WeatherDisplay:10.37,2013-01-18 08:26:00,
2013-01-18 00:29:00,38.2,27.8,30.22,NNE,24,0.0,0.0,66,0.00,SCT,,0.00,WeatherDisplay:10.37,2013-01-18 08:29:00,
2013-01-18 00:30:00,38.1,27.7,30.22,NNE,24,0.0,0.0,66,0.00,SCT,,0.00,WeatherDisplay:10.37,2013-01-18 08:30:00,
2013-01-18 00:31:00,38.1,27.7,30.22,NNE,24,0.0,0.0,66,0.00,SCT,,0.00,WeatherDisplay:10.37,2013-01-18 08:31:00,
2013-01-18 00:34:00,38.0,27.6,30.22,NNE,24,0.0,0.0,66,0.00,SCT,,0.00,WeatherDisplay:10.37,2013-01-18 08:34:00,
2013-01-18 00:35:00,38.0,27.6,30.22,NNE,24,0.0,0.0,66,0.00,SCT,,0.00,WeatherDisplay:10.37,2013-01-18 08:35:00,
2013-01-18 00:36:00,38.0,27.6,30.22,NNE,24,0.0,0.0,66,0.00,SCT,,0.00,WeatherDisplay:10.37,2013-01-18 08:36:00,
2013-01-18 00:40:00,37.9,27.5,30.22,NNE,24,0.0,0.0,66,0.00,SCT,,0.00,WeatherDisplay:10.37,2013-01-18 08:40:00,
2013-01-18 00:41:00,37.8,27.8,30.22,NNE,24,0.0,0.0,67,0.00,SCT,,0.00,WeatherDisplay:10.37,2013-01-18 08:41:00,
2013-01-18 00:45:00,37.7,27.4,30.22,NNE,24,0.0,0.0,66,0.00,SCT,,0.00,WeatherDisplay:10.37,2013-01-18 08:45:00,
2013-01-18 00:46:00,37.7,27.4,30.22,NNE,24,0.0,0.0,66,0.00,SCT,,0.00,WeatherDisplay:10.37,2013-01-18 08:46:00,
2013-01-18 00:50:00,37.7,27.7,30.22,NNE,24,0.0,0.0,67,0.00,SCT,,0.00,WeatherDisplay:10.37,2013-01-18 08:50:00,
2013-01-18 00:51:00,37.6,27.6,30.22,NNE,24,0.0,0.0,67,0.00,SCT,,0.00,WeatherDisplay:10.37,2013-01-18 08:51:00,
2013-01-18 00:55:00,37.6,27.6,30.22,NNE,24,0.0,0.0,67,0.00,SCT,,0.00,WeatherDisplay:10.37,2013-01-18 08:55:00,
2013-01-18 00:56:00,37.6,27.6,30.22,NNE,24,0.0,0.0,67,0.00,SCT,,0.00,WeatherDisplay:10.37,2013-01-18 08:56:00,
2013-01-18 01:00:00,37.6,27.6,30.22,NNE,24,0.0,0.0,67,0.00,SCT,,0.00,WeatherDisplay:10.37,2013-01-18 09:00:00,
2013-01-18 01:01:00,37.5,27.5,30.22,NNE,24,0.0,0.0,67,0.00,SCT,,0.00,WeatherDisplay:10.37,2013-01-18 09:01:00,
2013-01-18 01:05:00,37.4,27.4,30.22,NNE,24,0.0,0.0,67,0.00,SCT,,0.00,WeatherDisplay:10.37,2013-01-18 09:05:00,
2013-01-18 01:06:00,37.4,27.4,30.22,NNE,24,0.0,0.0,67,0.00,SCT,,0.00,WeatherDisplay:10.37,2013-01-18 09:06:00,
2013-01-18 01:10:00,37.3,27.3,30.22,NNE,24,0.0,0.0,67,0.00,SCT,,0.00,WeatherDisplay:10.37,2013-01-18 09:10:00,
2013-01-18 01:11:00,37.3,27.3,30.22,NNE,24,0.0,0.0,67,0.00,SCT,,0.00,WeatherDisplay:10.37,2013-01-18 09:11:00,
2013-01-18 01:12:00,37.3,27.3,30.22,NNE,24,0.0,0.0,67,0.00,SCT,,0.00,WeatherDisplay:10.37,2013-01-18 09:12:00,
2013-01-18 01:15:00,37.2,27.2,30.22,NNE,24,0.0,0.0,67,0.00,SCT,,0.00,WeatherDisplay:10.37,2013-01-18 09:15:00,
2013-01-18 01:16:00,37.2,27.2,30.22,NNE,24,0.0,0.0,67,0.00,SCT,,0.00,WeatherDisplay:10.37,2013-01-18 09:16:00,
2013-01-18 01:17:00,37.2,27.6,30.22,NNE,24,0.0,0.0,68,0.00,SCT,,0.00,WeatherDisplay:10.37,2013-01-18 09:17:00,
2013-01-18 01:20:00,37.2,27.2,30.22,NNE,24,0.0,0.0,67,0.00,SCT,,0.00,WeatherDisplay:10.37,2013-01-18 09:20:00,
2013-01-18 01:21:00,37.2,27.2,30.22,NNE,24,0.0,0.0,67,0.00,SCT,,0.00,WeatherDisplay:10.37,2013-01-18 09:21:00,
2013-01-18 01:22:00,37.1,27.2,30.22,NNE,24,0.0,0.0,67,0.00,SCT,,0.00,WeatherDisplay:10.37,2013-01-18 09:22:00,
2013-01-18 01:25:00,37.1,27.5,30.22,NNE,24,0.0,0.0,68,0.00,SCT,,0.00,WeatherDisplay:10.37,2013-01-18 09:25:00,
2013-01-18 01:26:00,37.1,27.2,30.23,NNE,24,0.0,0.0,67,0.00,SCT,,0.00,WeatherDisplay:10.37,2013-01-18 09:26:00,
2013-01-18 01:27:00,37.1,27.2,30.22,NNE,24,0.0,0.0,67,0.00,SCT,,0.00,WeatherDisplay:10.37,2013-01-18 09:27:00,
2013-01-18 01:30:00,37.0,27.4,30.23,NNE,24,0.0,0.0,68,0.00,SCT,,0.00,WeatherDisplay:10.37,2013-01-18 09:30:00,
2013-01-18 01:31:00,36.9,27.3,30.23,NNE,24,0.0,0.0,68,0.00,SCT,,0.00,WeatherDisplay:10.37,2013-01-18 09:31:00,
2013-01-18 01:32:00,36.9,27.0,30.22,NNE,24,0.0,0.0,67,0.00,SCT,,0.00,WeatherDisplay:10.37,2013-01-18 09:32:00,
2013-01-18 01:35:00,36.9,27.3,30.23,NNE,24,0.0,0.0,68,0.00,SCT,,0.00,WeatherDisplay:10.37,2013-01-18 09:35:00,
2013-01-18 01:36:00,36.9,27.3,30.23,NNE,24,0.0,0.0,68,0.00,SCT,,0.00,WeatherDisplay:10.37,2013-01-18 09:36:00,
2013-01-18 01:37:00,36.9,27.3,30.22,NNE,24,0.0,0.0,68,0.00,SCT,,0.00,WeatherDisplay:10.37,2013-01-18 09:37:00,
2013-01-18 01:40:00,36.7,27.1,30.23,NNE,24,0.0,0.0,68,0.00,SCT,,0.00,WeatherDisplay:10.37,2013-01-18 09:40:00,
2013-01-18 01:41:00,36.8,27.2,30.23,NNE,24,0.0,0.0,68,0.00,SCT,,0.00,WeatherDisplay:10.37,2013-01-18 09:41:00,
2013-01-18 01:42:00,36.7,27.1,30.23,NNE,24,0.0,0.0,68,0.00,SCT,,0.00,WeatherDisplay:10.37,2013-01-18 09:42:00,
2013-01-18 01:45:00,36.7,27.1,30.23,NNE,24,0.0,0.0,68,0.00,SCT,,0.00,WeatherDisplay:10.37,2013-01-18 09:45:00,
2013-01-18 01:46:00,36.7,27.1,30.23,NNE,24,0.0,0.0,68,0.00,SCT,,0.00,WeatherDisplay:10.37,2013-01-18 09:46:00,
2013-01-18 01:47:00,36.7,27.1,30.22,NNE,24,0.0,0.0,68,0.00,SCT,,0.00,WeatherDisplay:10.37,2013-01-18 09:47:00,
2013-01-18 01:50:00,36.7,27.1,30.23,NNE,24,0.0,0.0,68,0.00,SCT,,0.00,WeatherDisplay:10.37,2013-01-18 09:50:00,
2013-01-18 01:51:00,36.6,27.0,30.23,NNE,24,0.0,0.0,68,0.00,SCT,,0.00,WeatherDisplay:10.37,2013-01-18 09:51:00,
2013-01-18 01:52:00,36.7,27.1,30.23,NNE,24,0.0,0.0,68,0.00,SCT,,0.00,WeatherDisplay:10.37,2013-01-18 09:52:00,
2013-01-18 01:55:00,36.6,27.0,30.23,NNE,24,0.0,0.0,68,0.00,SCT,,0.00,WeatherDisplay:10.37,2013-01-18 09:55:00,
2013-01-18 01:56:00,36.6,27.0,30.23,NNE,24,0.0,0.0,68,0.00,SCT,,0.00,WeatherDisplay:10.37,2013-01-18 09:56:00,
2013-01-18 01:57:00,36.6,27.0,30.23,NNE,24,0.0,0.0,68,0.00,SCT,,0.00,WeatherDisplay:10.37,2013-01-18 09:57:00,
2013-01-18 02:01:00,36.5,27.3,30.23,NNE,24,0.0,0.0,69,0.00,SCT,,0.00,WeatherDisplay:10.37,2013-01-18 10:01:00,
2013-01-18 02:02:00,36.5,26.9,30.23,NNE,24,0.0,0.0,68,0.00,SCT,,0.00,WeatherDisplay:10.37,2013-01-18 10:02:00,
2013-01-18 02:06:00,36.5,26.9,30.23,NNE,24,0.0,0.0,68,0.00,SCT,,0.00,WeatherDisplay:10.37,2013-01-18 10:06:00,
2013-01-18 02:07:00,36.3,26.7,30.23,NNE,24,0.0,0.0,68,0.00,SCT,,0.00,WeatherDisplay:10.37,2013-01-18 10:07:00,
2013-01-18 02:08:00,36.3,26.7,30.23,NNE,24,0.0,0.0,68,0.00,SCT,,0.00,WeatherDisplay:10.37,2013-01-18 10:08:00,
2013-01-18 02:11:00,36.2,26.6,30.22,NNE,24,0.0,0.0,68,0.00,SCT,,0.00,WeatherDisplay:10.37,2013-01-18 10:11:00,
2013-01-18 02:12:00,36.2,26.6,30.23,NNE,24,0.0,0.0,68,0.00,SCT,,0.00,WeatherDisplay:10.37,2013-01-18 10:12:00,
2013-01-18 02:13:00,36.2,27.0,30.23,NNE,24,0.0,0.0,69,0.00,SCT,,0.00,WeatherDisplay:10.37,2013-01-18 10:13:00,
2013-01-18 02:16:00,36.2,27.0,30.22,NNE,24,0.0,0.0,69,0.00,SCT,,0.00,WeatherDisplay:10.37,2013-01-18 10:16:00,
2013-01-18 02:17:00,36.1,26.9,30.23,NNE,24,0.0,0.0,69,0.00,SCT,,0.00,WeatherDisplay:10.37,2013-01-18 10:17:00,
2013-01-18 02:18:00,36.1,26.9,30.23,NNE,24,0.0,0.0,69,0.00,SCT,,0.00,WeatherDisplay:10.37,2013-01-18 10:18:00,
2013-01-18 02:21:00,36.1,26.6,30.23,NNE,24,0.0,0.0,68,0.00,SCT,,0.00,WeatherDisplay:10.37,2013-01-18 10:21:00,
2013-01-18 02:22:00,36.1,26.9,30.23,NNE,24,0.0,0.0,69,0.00,SCT,,0.00,WeatherDisplay:10.37,2013-01-18 10:22:00,
2013-01-18 02:23:00,36.1,26.9,30.23,NNE,24,0.0,0.0,69,0.00,SCT,,0.00,WeatherDisplay:10.37,2013-01-18 10:23:00,
2013-01-18 02:26:00,36.1,26.9,30.23,NNE,24,0.0,0.0,69,0.00,SCT,,0.00,WeatherDisplay:10.37,2013-01-18 10:26:00,
2013-01-18 02:27:00,36.0,26.8,30.23,NNE,24,0.0,0.0,69,0.00,SCT,,0.00,WeatherDisplay:10.37,2013-01-18 10:27:00,
2013-01-18 02:28:00,36.0,26.8,30.23,NNE,24,0.0,0.0,69,0.00,SCT,,0.00,WeatherDisplay:10.37,2013-01-18 10:28:00,
2013-01-18 02:31:00,36.0,26.8,30.23,NNE,24,0.0,0.0,69,0.00,SCT,,0.00,WeatherDisplay:10.37,2013-01-18 10:31:00,
2013-01-18 02:32:00,36.0,26.8,30.23,NNE,24,0.0,0.0,69,0.00,SCT,,0.00,WeatherDisplay:10.37,2013-01-18 10:32:00,
2013-01-18 02:33:00,35.9,26.7,30.23,NNE,24,0.0,0.0,69,0.00,SCT,,0.00,WeatherDisplay:10.37,2013-01-18 10:33:00,
2013-01-18 02:36:00,35.9,26.7,30.23,NNE,24,0.0,0.0,69,0.00,SCT,,0.00,WeatherDisplay:10.37,2013-01-18 10:36:00,
2013-01-18 02:37:00,35.9,26.7,30.23,NNE,24,0.0,0.0,69,0.00,SCT,,0.00,WeatherDisplay:10.37,2013-01-18 10:37:00,
2013-01-18 02:38:00,35.9,26.7,30.23,NNE,24,0.0,0.0,69,0.00,SCT,,0.00,WeatherDisplay:10.37,2013-01-18 10:38:00,
2013-01-18 02:41:00,35.7,26.5,30.23,NNE,24,0.0,0.0,69,0.00,SCT,,0.00,WeatherDisplay:10.37,2013-01-18 10:41:00,
2013-01-18 02:42:00,35.8,26.6,30.23,NNE,24,0.0,0.0,69,0.00,SCT,,0.00,WeatherDisplay:10.37,2013-01-18 10:42:00,
2013-01-18 02:43:00,35.7,26.5,30.23,NNE,24,0.0,0.0,69,0.00,SCT,,0.00,WeatherDisplay:10.37,2013-01-18 10:43:00,
2013-01-18 02:46:00,35.7,26.5,30.23,NNE,24,0.0,0.0,69,0.00,SCT,,0.00,WeatherDisplay:10.37,2013-01-18 10:46:00,
2013-01-18 02:47:00,35.7,26.5,30.23,NNE,24,0.0,0.0,69,0.00,SCT,,0.00,WeatherDisplay:10.37,2013-01-18 10:47:00,
2013-01-18 02:48:00,35.7,26.5,30.23,NNE,24,0.0,0.0,69,0.00,SCT,,0.00,WeatherDisplay:10.37,2013-01-18 10:48:00,
2013-01-18 02:51:00,35.6,26.4,30.23,NNE,24,0.0,0.0,69,0.00,SCT,,0.00,WeatherDisplay:10.37,2013-01-18 10:51:00,
2013-01-18 02:52:00,35.6,26.4,30.23,NNE,24,0.0,0.0,69,0.00,SCT,,0.00,WeatherDisplay:10.37,2013-01-18 10:52:00,
2013-01-18 02:53:00,35.6,26.4,30.23,NNE,24,0.0,0.0,69,0.00,SCT,,0.00,WeatherDisplay:10.37,2013-01-18 10:53:00,
2013-01-18 02:57:00,35.5,26.7,30.23,NNE,24,0.0,0.0,70,0.00,SCT,,0.00,WeatherDisplay:10.37,2013-01-18 10:57:00,
2013-01-18 02:58:00,35.5,26.3,30.23,NNE,24,0.0,0.0,69,0.00,SCT,,0.00,WeatherDisplay:10.37,2013-01-18 10:58:00,
2013-01-18 03:02:00,35.4,26.6,30.23,NNE,24,0.0,0.0,70,0.00,SCT,,0.00,WeatherDisplay:10.37,2013-01-18 11:02:00,
2013-01-18 03:03:00,35.4,26.6,30.23,NNE,24,0.0,0.0,70,0.00,SCT,,0.00,WeatherDisplay:10.37,2013-01-18 11:03:00,
2013-01-18 03:07:00,35.4,26.6,30.23,NNE,24,0.0,0.0,70,0.00,SCT,,0.00,WeatherDisplay:10.37,2013-01-18 11:07:00,
2013-01-18 03:08:00,35.4,26.6,30.23,NNE,24,0.0,0.0,70,0.00,SCT,,0.00,WeatherDisplay:10.37,2013-01-18 11:08:00,
2013-01-18 03:12:00,35.3,26.5,30.22,NNE,24,0.0,0.0,70,0.00,SCT,,0.00,WeatherDisplay:10.37,2013-01-18 11:12:00,
2013-01-18 03:13:00,35.3,26.5,30.22,NNE,24,0.0,0.0,70,0.00,SCT,,0.00,WeatherDisplay:10.37,2013-01-18 11:13:00,
2013-01-18 03:17:00,35.2,26.4,30.23,NNE,24,0.0,0.0,70,0.00,SCT,,0.00,WeatherDisplay:10.37,2013-01-18 11:17:00,
2013-01-18 03:18:00,35.2,26.4,30.23,NNE,24,0.0,0.0,70,0.00,SCT,,0.00,WeatherDisplay:10.37,2013-01-18 11:18:00,
2013-01-18 03:19:00,35.2,26.4,30.22,NNE,24,0.0,0.0,70,0.00,SCT,,0.00,WeatherDisplay:10.37,2013-01-18 11:19:00,
2013-01-18 03:22:00,35.1,26.3,30.22,NNE,24,0.0,0.0,70,0.00,SCT,,0.00,WeatherDisplay:10.37,2013-01-18 11:22:00,
2013-01-18 03:23:00,35.0,26.2,30.22,NNE,24,0.0,0.0,70,0.00,SCT,,0.00,WeatherDisplay:10.37,2013-01-18 11:23:00,
2013-01-18 03:24:00,35.1,26.3,30.22,NNE,24,0.0,0.0,70,0.00,SCT,,0.00,WeatherDisplay:10.37,2013-01-18 11:24:00,
2013-01-18 03:27:00,35.0,26.2,30.23,NNE,24,0.0,0.0,70,0.00,SCT,,0.00,WeatherDisplay:10.37,2013-01-18 11:27:00,
2013-01-18 03:28:00,35.0,26.2,30.22,NNE,24,0.0,0.0,70,0.00,SCT,,0.00,WeatherDisplay:10.37,2013-01-18 11:28:00,
2013-01-18 03:29:00,35.0,26.2,30.22,NNE,24,0.0,0.0,70,0.00,SCT,,0.00,WeatherDisplay:10.37,2013-01-18 11:29:00,
2013-01-18 03:32:00,35.0,26.2,30.23,NNE,24,0.0,0.0,70,0.00,SCT,,0.00,WeatherDisplay:10.37,2013-01-18 11:32:00,
2013-01-18 03:33:00,34.9,26.1,30.22,NNE,24,0.0,0.0,70,0.00,SCT,,0.00,WeatherDisplay:10.37,2013-01-18 11:33:00,
2013-01-18 03:34:00,34.9,26.1,30.23,NNE,24,0.0,0.0,70,0.00,SCT,,0.00,WeatherDisplay:10.37,2013-01-18 11:34:00,
2013-01-18 03:38:00,34.9,26.1,30.23,NNE,24,0.0,0.0,70,0.00,SCT,,0.00,WeatherDisplay:10.37,2013-01-18 11:38:00,
2013-01-18 03:39:00,34.8,26.0,30.22,NNE,24,0.0,0.0,70,0.00,SCT,,0.00,WeatherDisplay:10.37,2013-01-18 11:39:00,
2013-01-18 03:43:00,34.8,26.4,30.23,NNE,24,0.0,0.0,71,0.00,SCT,,0.00,WeatherDisplay:10.37,2013-01-18 11:43:00,
2013-01-18 03:44:00,34.7,26.3,30.23,NNE,24,0.0,0.0,71,0.00,SCT,,0.00,WeatherDisplay:10.37,2013-01-18 11:44:00,
2013-01-18 03:48:00,34.7,26.3,30.23,NNE,24,0.0,0.0,71,0.00,SCT,,0.00,WeatherDisplay:10.37,2013-01-18 11:48:00,
2013-01-18 03:49:00,34.7,26.3,30.22,NNE,24,0.0,0.0,71,0.00,SCT,,0.00,WeatherDisplay:10.37,2013-01-18 11:49:00,
2013-01-18 03:53:00,34.6,26.2,30.22,NNE,24,0.0,0.0,71,0.00,SCT,,0.00,WeatherDisplay:10.37,2013-01-18 11:53:00,
2013-01-18 03:54:00,34.6,26.2,30.22,NNE,24,0.0,0.0,71,0.00,SCT,,0.00,WeatherDisplay:10.37,2013-01-18 11:54:00,
2013-01-18 03:58:00,34.6,26.2,30.23,NNE,24,0.0,0.0,71,0.00,SCT,,0.00,WeatherDisplay:10.37,2013-01-18 11:58:00,
2013-01-18 03:59:00,34.6,26.2,30.22,NNE,24,0.0,0.0,71,0.00,SCT,,0.00,WeatherDisplay:10.37,2013-01-18 11:59:00,
2013-01-18 04:03:00,34.5,26.1,30.23,NNE,24,0.0,0.0,71,0.00,SCT,,0.00,WeatherDisplay:10.37,2013-01-18 12:03:00,
2013-01-18 04:04:00,34.5,26.1,30.23,NNE,24,0.0,0.0,71,0.00,SCT,,0.00,WeatherDisplay:10.37,2013-01-18 12:04:00,
2013-01-18 04:08:00,34.5,26.1,30.22,NNE,24,0.0,0.0,71,0.00,SCT,,0.00,WeatherDisplay:10.37,2013-01-18 12:08:00,
2013-01-18 04:09:00,34.4,26.0,30.23,NNE,24,0.0,0.0,71,0.00,SCT,,0.00,WeatherDisplay:10.37,2013-01-18 12:09:00,
2013-01-18 04:13:00,34.4,26.3,30.23,NNE,24,0.0,0.0,72,0.00,SCT,,0.00,WeatherDisplay:10.37,2013-01-18 12:13:00,
2013-01-18 04:14:00,34.4,26.0,30.23,NNE,24,0.0,0.0,71,0.00,SCT,,0.00,WeatherDisplay:10.37,2013-01-18 12:14:00,
2013-01-18 04:18:00,34.4,26.0,30.23,NNE,24,0.0,0.0,71,0.00,SCT,,0.00,WeatherDisplay:10.37,2013-01-18 12:18:00,
2013-01-18 04:19:00,34.4,26.0,30.23,NNE,24,0.0,0.0,71,0.00,SCT,,0.00,WeatherDisplay:10.37,2013-01-18 12:19:00,
2013-01-18 04:23:00,34.2,25.8,30.22,NNE,24,0.0,0.0,71,0.00,SCT,,0.00,WeatherDisplay:10.37,2013-01-18 12:23:00,
2013-01-18 04:24:00,34.3,25.9,30.22,NNE,24,0.0,0.0,71,0.00,SCT,,0.00,WeatherDisplay:10.37,2013-01-18 12:24:00,
2013-01-18 04:29:00,34.2,25.8,30.22,NNE,24,0.0,0.0,71,0.00,SCT,,0.00,WeatherDisplay:10.37,2013-01-18 12:29:00,
2013-01-18 04:30:00,34.1,26.0,30.23,NNE,24,0.0,0.0,72,0.00,SCT,,0.00,WeatherDisplay:10.37,2013-01-18 12:30:00,
2013-01-18 04:34:00,34.1,25.7,30.22,NNE,24,0.0,0.0,71,0.00,SCT,,0.00,WeatherDisplay:10.37,2013-01-18 12:34:00,
2013-01-18 04:35:00,34.1,26.0,30.22,NNE,24,0.0,0.0,72,0.00,SCT,,0.00,WeatherDisplay:10.37,2013-01-18 12:35:00,
2013-01-18 04:39:00,34.0,25.9,30.22,NNE,24,0.0,0.0,72,0.00,SCT,,0.00,WeatherDisplay:10.37,2013-01-18 12:39:00,
2013-01-18 04:40:00,34.0,25.6,30.22,NNE,24,0.0,0.0,71,0.00,SCT,,0.00,WeatherDisplay:10.37,2013-01-18 12:40:00,
2013-01-18 04:44:00,34.0,25.9,30.22,NNE,24,0.0,0.0,72,0.00,SCT,,0.00,WeatherDisplay:10.37,2013-01-18 12:44:00,
2013-01-18 04:45:00,34.0,25.9,30.22,NNE,24,0.0,0.0,72,0.00,SCT,,0.00,WeatherDisplay:10.37,2013-01-18 12:45:00,
2013-01-18 04:49:00,33.8,25.7,30.22,NNE,24,0.0,0.0,72,0.00,SCT,,0.00,WeatherDisplay:10.37,2013-01-18 12:49:00,
2013-01-18 04:50:00,33.8,25.7,30.22,NNE,24,0.0,0.0,72,0.00,SCT,,0.00,WeatherDisplay:10.37,2013-01-18 12:50:00,
2013-01-18 04:54:00,33.8,25.7,30.22,NNE,24,0.0,0.0,72,0.00,SCT,,0.00,WeatherDisplay:10.37,2013-01-18 12:54:00,
2013-01-18 04:55:00,33.8,25.7,30.22,NNE,24,0.0,0.0,72,0.00,SCT,,0.00,WeatherDisplay:10.37,2013-01-18 12:55:00,
2013-01-18 04:59:00,33.8,26.1,30.22,NNE,24,0.0,0.0,73,0.00,SCT,,0.00,WeatherDisplay:10.37,2013-01-18 12:59:00,
2013-01-18 05:00:00,33.8,25.7,30.22,NNE,24,0.0,0.0,72,0.00,SCT,,0.00,WeatherDisplay:10.37,2013-01-18 13:00:00,
2013-01-18 05:04:00,33.7,26.0,30.22,NNE,24,0.0,0.0,73,0.00,SCT,,0.00,WeatherDisplay:10.37,2013-01-18 13:04:00,
2013-01-18 05:05:00,33.7,26.0,30.23,NNE,24,0.0,0.0,73,0.00,SCT,,0.00,WeatherDisplay:10.37,2013-01-18 13:05:00,
2013-01-18 05:09:00,33.7,26.0,30.22,NNE,24,0.0,0.0,73,0.00,SCT,,0.00,WeatherDisplay:10.37,2013-01-18 13:09:00,
2013-01-18 05:10:00,33.7,26.0,30.22,NNE,24,0.0,0.0,73,0.00,SCT,,0.00,WeatherDisplay:10.37,2013-01-18 13:10:00,
2013-01-18 05:14:00,33.6,25.9,30.22,NNE,24,0.0,0.0,73,0.00,SCT,,0.00,WeatherDisplay:10.37,2013-01-18 13:14:00,
2013-01-18 05:15:00,33.6,25.9,30.22,NNE,24,0.0,0.0,73,0.00,SCT,,0.00,WeatherDisplay:10.37,2013-01-18 13:15:00,
2013-01-18 05:19:00,33.6,25.9,30.22,NNE,24,0.0,0.0,73,0.00,SCT,,0.00,WeatherDisplay:10.37,2013-01-18 13:19:00,
2013-01-18 05:20:00,33.6,25.9,30.22,NNE,24,0.0,0.0,73,0.00,SCT,,0.00,WeatherDisplay:10.37,2013-01-18 13:20:00,
2013-01-18 05:24:00,33.5,25.8,30.22,NNE,24,0.0,0.0,73,0.00,SCT,,0.00,WeatherDisplay:10.37,2013-01-18 13:24:00,
2013-01-18 05:25:00,33.5,25.8,30.22,NNE,24,0.0,0.0,73,0.00,SCT,,0.00,WeatherDisplay:10.37,2013-01-18 13:25:00,
2013-01-18 05:30:00,33.5,25.8,30.22,NNE,24,0.0,0.0,73,0.00,SCT,,0.00,WeatherDisplay:10.37,2013-01-18 13:30:00,
2013-01-18 05:35:00,33.4,25.7,30.22,NNE,24,0.0,0.0,73,0.00,SCT,,0.00,WeatherDisplay:10.37,2013-01-18 13:35:00,
2013-01-18 05:36:00,33.4,25.7,30.22,NNE,24,0.0,0.0,73,0.00,SCT,,0.00,WeatherDisplay:10.37,2013-01-18 13:36:00,
2013-01-18 05:40:00,33.4,25.7,30.22,NNE,24,0.0,0.0,73,0.00,SCT,,0.00,WeatherDisplay:10.37,2013-01-18 13:40:00,
2013-01-18 05:41:00,33.4,25.7,30.22,NNE,24,0.0,0.0,73,0.00,SCT,,0.00,WeatherDisplay:10.37,2013-01-18 13:41:00,
2013-01-18 05:45:00,33.3,25.6,30.22,NNE,24,0.0,0.0,73,0.00,SCT,,0.00,WeatherDisplay:10.37,2013-01-18 13:45:00,
2013-01-18 05:46:00,33.3,25.6,30.22,NNE,24,0.0,0.0,73,0.00,SCT,,0.00,WeatherDisplay:10.37,2013-01-18 13:46:00,
2013-01-18 05:50:00,33.2,25.5,30.22,NNE,24,0.0,0.0,73,0.00,SCT,,0.00,WeatherDisplay:10.37,2013-01-18 13:50:00,
2013-01-18 05:51:00,33.2,25.5,30.22,NNE,24,0.0,0.0,73,0.00,SCT,,0.00,WeatherDisplay:10.37,2013-01-18 13:51:00,
2013-01-18 05:55:00,33.2,25.5,30.23,NNE,24,0.0,0.0,73,0.00,SCT,,0.00,WeatherDisplay:10.37,2013-01-18 13:55:00,
2013-01-18 05:56:00,33.2,25.8,30.22,NNE,24,0.0,0.0,74,0.00,SCT,,0.00,WeatherDisplay:10.37,2013-01-18 13:56:00,
2013-01-18 06:00:00,33.2,25.5,30.23,NNE,24,0.0,0.0,73,0.00,SCT,,0.00,WeatherDisplay:10.37,2013-01-18 14:00:00,
2013-01-18 06:01:00,33.1,25.4,30.23,NNE,24,0.0,0.0,73,0.00,SCT,,0.00,WeatherDisplay:10.37,2013-01-18 14:01:00,
2013-01-18 06:05:00,33.1,25.4,30.22,NNE,24,0.0,0.0,73,0.00,SCT,,0.00,WeatherDisplay:10.37,2013-01-18 14:05:00,
2013-01-18 06:06:00,33.1,25.4,30.22,NNE,24,0.0,0.0,73,0.00,SCT,,0.00,WeatherDisplay:10.37,2013-01-18 14:06:00,
2013-01-18 06:07:00,33.1,25.7,30.23,NNE,24,0.0,0.0,74,0.00,SCT,,0.00,WeatherDisplay:10.37,2013-01-18 14:07:00,
2013-01-18 06:10:00,33.1,25.4,30.22,NNE,24,0.0,0.0,73,0.00,SCT,,0.00,WeatherDisplay:10.37,2013-01-18 14:10:00,
2013-01-18 06:11:00,33.1,25.7,30.22,NNE,24,0.0,0.0,74,0.00,SCT,,0.00,WeatherDisplay:10.37,2013-01-18 14:11:00,
2013-01-18 06:12:00,33.0,25.6,30.22,NNE,24,0.0,0.0,74,0.00,SCT,,0.00,WeatherDisplay:10.37,2013-01-18 14:12:00,
2013-01-18 06:15:00,33.0,25.6,30.22,NNE,24,0.0,0.0,74,0.00,SCT,,0.00,WeatherDisplay:10.37,2013-01-18 14:15:00,
2013-01-18 06:16:00,33.0,25.6,30.23,NNE,24,0.0,0.0,74,0.00,SCT,,0.00,WeatherDisplay:10.37,2013-01-18 14:16:00,
2013-01-18 06:17:00,33.0,25.6,30.22,NNE,24,0.0,0.0,74,0.00,SCT,,0.00,WeatherDisplay:10.37,2013-01-18 14:17:00,
2013-01-18 06:20:00,33.0,25.6,30.23,NNE,24,0.0,0.0,74,0.00,SCT,,0.00,WeatherDisplay:10.37,2013-01-18 14:20:00,
2013-01-18 06:21:00,33.0,25.6,30.23,NNE,24,0.0,0.0,74,0.00,SCT,,0.00,WeatherDisplay:10.37,2013-01-18 14:21:00,
2013-01-18 06:22:00,33.0,25.6,30.22,NNE,24,0.0,0.0,74,0.00,SCT,,0.00,WeatherDisplay:10.37,2013-01-18 14:22:00,
2013-01-18 06:25:00,32.9,25.2,30.23,NNE,24,0.0,0.0,73,0.00,SCT,,0.00,WeatherDisplay:10.37,2013-01-18 14:25:00,
2013-01-18 06:26:00,32.9,25.2,30.23,NNE,24,0.0,0.0,73,0.00,SCT,,0.00,WeatherDisplay:10.37,2013-01-18 14:26:00,
2013-01-18 06:27:00,32.9,25.5,30.23,NNE,24,0.0,0.0,74,0.00,SCT,,0.00,WeatherDisplay:10.37,2013-01-18 14:27:00,
2013-01-18 06:30:00,32.9,25.5,30.23,NNE,24,0.0,0.0,74,0.00,SCT,,0.00,WeatherDisplay:10.37,2013-01-18 14:30:00,
2013-01-18 06:31:00,32.8,25.4,30.23,NNE,24,0.0,0.0,74,0.00,SCT,,0.00,WeatherDisplay:10.37,2013-01-18 14:31:00,
2013-01-18 06:32:00,32.9,25.2,30.23,NNE,24,0.0,0.0,73,0.00,SCT,,0.00,WeatherDisplay:10.37,2013-01-18 14:32:00,
2013-01-18 06:36:00,32.8,25.4,30.23,NNE,24,0.0,0.0,74,0.00,SCT,,0.00,WeatherDisplay:10.37,2013-01-18 14:36:00,
2013-01-18 06:37:00,32.7,25.3,30.23,NNE,24,0.0,0.0,74,0.00,SCT,,0.00,WeatherDisplay:10.37,2013-01-18 14:37:00,
2013-01-18 06:41:00,32.7,25.3,30.23,NNE,24,0.0,0.0,74,0.00,SCT,,0.00,WeatherDisplay:10.37,2013-01-18 14:41:00,
2013-01-18 06:42:00,32.7,25.3,30.23,NNE,24,0.0,0.0,74,0.00,SCT,,0.00,WeatherDisplay:10.37,2013-01-18 14:42:00,
2013-01-18 06:46:00,32.6,25.2,30.23,NNE,24,0.0,0.0,74,0.00,SCT,,0.00,WeatherDisplay:10.37,2013-01-18 14:46:00,
2013-01-18 06:47:00,32.7,25.3,30.23,NNE,24,0.0,0.0,74,0.00,SCT,,0.00,WeatherDisplay:10.37,2013-01-18 14:47:00,
2013-01-18 06:51:00,32.7,25.6,30.23,NNE,24,0.0,0.0,75,0.00,SCT,,0.00,WeatherDisplay:10.37,2013-01-18 14:51:00,
2013-01-18 06:52:00,32.6,25.6,30.23,NNE,24,0.0,0.0,75,0.00,SCT,,0.00,WeatherDisplay:10.37,2013-01-18 14:52:00,
2013-01-18 06:56:00,32.6,25.2,30.23,NNE,24,0.0,0.0,74,0.00,SCT,,0.00,WeatherDisplay:10.37,2013-01-18 14:56:00,
2013-01-18 06:57:00,32.6,25.2,30.23,NNE,24,0.0,0.0,74,0.00,SCT,,0.00,WeatherDisplay:10.37,2013-01-18 14:57:00,
2013-01-18 07:01:00,32.6,25.2,30.23,NNE,24,0.0,0.0,74,0.00,SCT,,0.00,WeatherDisplay:10.37,2013-01-18 15:01:00,
2013-01-18 07:02:00,32.6,25.6,30.23,NNE,24,0.0,0.0,75,0.00,SCT,,0.00,WeatherDisplay:10.37,2013-01-18 15:02:00,
2013-01-18 07:06:00,32.6,25.2,30.23,NNE,24,0.0,0.0,74,0.00,SCT,,0.00,WeatherDisplay:10.37,2013-01-18 15:06:00,
2013-01-18 07:07:00,32.6,25.6,30.23,NNE,24,0.0,0.0,75,0.00,SCT,,0.00,WeatherDisplay:10.37,2013-01-18 15:07:00,
2013-01-18 07:11:00,32.5,25.5,30.24,NNE,24,0.0,0.0,75,0.00,SCT,,0.00,WeatherDisplay:10.37,2013-01-18 15:11:00,
2013-01-18 07:12:00,32.5,25.5,30.23,NNE,24,0.0,0.0,75,0.00,SCT,,0.00,WeatherDisplay:10.37,2013-01-18 15:12:00,
2013-01-18 07:16:00,32.5,25.5,30.23,NNE,24,0.0,0.0,75,0.00,SCT,,0.00,WeatherDisplay:10.37,2013-01-18 15:16:00,
2013-01-18 07:17:00,32.5,25.5,30.23,NNE,24,0.0,0.0,75,0.00,SCT,,0.00,WeatherDisplay:10.37,2013-01-18 15:17:00,
2013-01-18 07:21:00,32.5,25.5,30.23,NNE,24,0.0,0.0,75,0.00,SCT,,0.00,WeatherDisplay:10.37,2013-01-18 15:21:00,
2013-01-18 07:22:00,32.4,25.4,30.23,NNE,24,0.0,0.0,75,0.00,SCT,,0.00,WeatherDisplay:10.37,2013-01-18 15:22:00,
2013-01-18 07:26:00,32.5,25.5,30.24,NNE,24,0.0,0.0,75,0.00,SCT,,0.00,WeatherDisplay:10.37,2013-01-18 15:26:00,
2013-01-18 07:27:00,32.5,25.5,30.24,NNE,24,0.0,0.0,75,0.00,SCT,,0.00,WeatherDisplay:10.37,2013-01-18 15:27:00,
2013-01-18 07:31:00,32.4,25.4,30.24,NNE,24,0.0,0.0,75,0.00,SCT,,0.00,WeatherDisplay:10.37,2013-01-18 15:31:00,
2013-01-18 07:32:00,32.5,25.5,30.24,NNE,24,0.0,0.0,75,0.00,SCT,,0.00,WeatherDisplay:10.37,2013-01-18 15:32:00,
2013-01-18 07:36:00,32.5,25.5,30.24,NNE,24,0.0,0.0,75,0.00,SCT,,0.00,WeatherDisplay:10.37,2013-01-18 15:36:00,
2013-01-18 07:37:00,32.5,25.5,30.24,NNE,24,0.0,0.0,75,0.00,SCT,,0.00,WeatherDisplay:10.37,2013-01-18 15:37:00,
2013-01-18 07:42:00,32.5,25.5,30.24,NNE,24,0.0,0.0,75,0.00,SCT,,0.00,WeatherDisplay:10.37,2013-01-18 15:42:00,
2013-01-18 07:47:00,32.5,25.8,30.24,NNE,24,0.0,0.0,76,0.00,SCT,,0.00,WeatherDisplay:10.37,2013-01-18 15:47:00,
2013-01-18 07:48:00,32.5,25.8,30.24,NNE,24,0.0,0.0,76,0.00,SCT,,0.00,WeatherDisplay:10.37,2013-01-18 15:48:00,
2013-01-18 07:52:00,32.6,25.9,30.24,NNE,24,0.0,0.0,76,0.00,SCT,,0.00,WeatherDisplay:10.37,2013-01-18 15:52:00,
2013-01-18 07:53:00,32.7,26.0,30.24,NNE,24,0.0,0.0,76,0.00,SCT,,0.00,WeatherDisplay:10.37,2013-01-18 15:53:00,
2013-01-18 07:57:00,32.8,26.1,30.24,NNE,24,0.0,0.0,76,0.00,SCT,,0.00,WeatherDisplay:10.37,2013-01-18 15:57:00,
2013-01-18 07:58:00,32.8,26.1,30.24,NNE,24,0.0,0.0,76,0.00,SCT,,0.00,WeatherDisplay:10.37,2013-01-18 15:58:00,
2013-01-18 08:02:00,33.1,26.4,30.25,NNE,24,0.0,0.0,76,0.00,SCT,,0.00,WeatherDisplay:10.37,2013-01-18 16:02:00,
2013-01-18 08:03:00,33.1,26.7,30.24,NNE,24,0.0,0.0,77,0.00,SCT,,0.00,WeatherDisplay:10.37,2013-01-18 16:03:00,
2013-01-18 08:07:00,33.3,26.5,30.25,NNE,24,0.0,0.0,76,0.00,SCT,,0.00,WeatherDisplay:10.37,2013-01-18 16:07:00,
2013-01-18 08:08:00,33.3,26.5,30.25,NNE,24,0.0,0.0,76,0.00,SCT,,0.00,WeatherDisplay:10.37,2013-01-18 16:08:00,
2013-01-18 08:12:00,33.7,27.3,30.25,NNE,24,0.0,0.0,77,0.00,SCT,,0.00,WeatherDisplay:10.37,2013-01-18 16:12:00,
2013-01-18 08:13:00,33.7,27.3,30.25,NNE,24,0.0,0.0,77,0.00,SCT,,0.00,WeatherDisplay:10.37,2013-01-18 16:13:00,
2013-01-18 08:17:00,34.2,27.4,30.25,NNE,24,0.0,0.0,76,0.00,SCT,,0.00,WeatherDisplay:10.37,2013-01-18 16:17:00,
2013-01-18 08:18:00,34.2,27.4,30.25,NNE,24,0.0,0.0,76,0.00,SCT,,0.00,WeatherDisplay:10.37,2013-01-18 16:18:00,
2013-01-18 08:22:00,34.8,28.0,30.25,NNE,24,0.0,0.0,76,0.00,SCT,,0.00,WeatherDisplay:10.37,2013-01-18 16:22:00,
2013-01-18 08:23:00,34.8,28.0,30.25,NNE,24,0.0,0.0,76,0.00,SCT,,0.00,WeatherDisplay:10.37,2013-01-18 16:23:00,
2013-01-18 08:27:00,35.4,28.6,30.25,NNE,24,0.0,0.0,76,0.00,SCT,,0.00,WeatherDisplay:10.37,2013-01-18 16:27:00,
2013-01-18 08:28:00,35.4,28.3,30.25,NNE,24,0.0,0.0,75,0.00,SCT,,0.00,WeatherDisplay:10.37,2013-01-18 16:28:00,
2013-01-18 08:32:00,36.0,28.5,30.25,NNE,24,0.0,0.0,74,0.00,SCT,,0.00,WeatherDisplay:10.37,2013-01-18 16:32:00,
2013-01-18 08:33:00,36.0,28.5,30.25,NNE,24,0.0,0.0,74,0.00,SCT,,0.00,WeatherDisplay:10.37,2013-01-18 16:33:00,
2013-01-18 08:38:00,36.6,29.1,30.25,NNE,24,0.0,0.0,74,0.00,SCT,,0.00,WeatherDisplay:10.37,2013-01-18 16:38:00,
2013-01-18 08:43:00,37.1,29.6,30.26,NNE,24,0.0,0.0,74,0.00,SCT,,0.00,WeatherDisplay:10.37,2013-01-18 16:43:00,
2013-01-18 08:48:00,37.7,29.8,30.26,NNE,24,0.0,0.0,73,0.00,SCT,,0.00,WeatherDisplay:10.37,2013-01-18 16:48:00,
2013-01-18 08:53:00,38.3,30.4,30.26,NNE,24,0.0,0.0,73,0.00,SCT,,0.00,WeatherDisplay:10.37,2013-01-18 16:53:00,
2013-01-18 08:58:00,38.8,30.2,30.26,NNE,24,0.0,0.0,71,0.00,SCT,,0.00,WeatherDisplay:10.37,2013-01-18 16:58:00,
2013-01-18 09:03:00,39.4,30.8,30.26,NNE,24,0.0,0.0,71,0.00,SCT,,0.00,WeatherDisplay:10.37,2013-01-18 17:03:00,
2013-01-18 09:04:00,39.5,30.9,30.26,NNE,24,0.0,0.0,71,0.00,SCT,,0.00,WeatherDisplay:10.37,2013-01-18 17:04:00,
2013-01-18 09:08:00,40.0,30.6,30.26,NNE,24,0.0,0.0,69,0.00,SCT,,0.00,WeatherDisplay:10.37,2013-01-18 17:08:00,
2013-01-18 09:09:00,40.0,30.6,30.27,NNE,24,0.0,0.0,69,0.00,SCT,,0.00,WeatherDisplay:10.37,2013-01-18 17:09:00,
2013-01-18 09:13:00,40.3,30.9,30.27,NNE,24,0.0,0.0,69,0.00,SCT,,0.00,WeatherDisplay:10.37,2013-01-18 17:13:00,
2013-01-18 09:14:00,40.3,31.3,30.26,NNE,24,0.0,0.0,70,0.00,SCT,,0.00,WeatherDisplay:10.37,2013-01-18 17:14:00,
2013-01-18 09:18:00,40.8,31.4,30.26,NNE,24,0.0,0.0,69,0.00,SCT,,0.00,WeatherDisplay:10.37,2013-01-18 17:18:00,
2013-01-18 09:19:00,40.8,31.4,30.26,NNE,24,0.0,0.0,69,0.00,SCT,,0.00,WeatherDisplay:10.37,2013-01-18 17:19:00,
2013-01-18 09:23:00,41.1,31.3,30.27,NNE,24,0.0,0.0,68,0.00,SCT,,0.00,WeatherDisplay:10.37,2013-01-18 17:23:00,
2013-01-18 09:24:00,41.1,31.3,30.27,NNE,24,0.0,0.0,68,0.00,SCT,,0.00,WeatherDisplay:10.37,2013-01-18 17:24:00,
2013-01-18 09:28:00,41.5,31.4,30.27,NNE,24,0.0,0.0,67,0.00,SCT,,0.00,WeatherDisplay:10.37,2013-01-18 17:28:00,
2013-01-18 09:29:00,41.6,31.4,30.27,NNE,24,0.0,0.0,67,0.00,SCT,,0.00,WeatherDisplay:10.37,2013-01-18 17:29:00,
2013-01-18 09:34:00,42.1,31.6,30.27,NNE,24,0.0,0.0,66,0.00,SCT,,0.00,WeatherDisplay:10.37,2013-01-18 17:34:00,
2013-01-18 09:39:00,42.7,31.7,30.27,NNE,24,0.0,0.0,65,0.00,SCT,,0.00,WeatherDisplay:10.37,2013-01-18 17:39:00,
2013-01-18 09:40:00,42.8,31.8,30.27,NNE,24,0.0,0.0,65,0.00,SCT,,0.00,WeatherDisplay:10.37,2013-01-18 17:40:00,
2013-01-18 09:44:00,43.2,32.2,30.27,NNE,24,0.0,0.0,65,0.00,SCT,,0.00,WeatherDisplay:10.37,2013-01-18 17:44:00,
2013-01-18 09:45:00,43.3,31.9,30.27,NW,311,0.0,0.0,64,0.00,SCT,,0.00,WeatherDisplay:10.37,2013-01-18 17:45:00,
2013-01-18 09:49:00,43.7,32.3,30.27,NW,310,0.0,0.0,64,0.00,SCT,,0.00,WeatherDisplay:10.37,2013-01-18 17:49:00,
2013-01-18 09:50:00,43.7,32.3,30.27,NW,310,0.0,0.0,64,0.00,SCT,,0.00,WeatherDisplay:10.37,2013-01-18 17:50:00,
2013-01-18 09:54:00,44.0,32.2,30.27,NW,310,0.0,0.0,63,0.00,SCT,,0.00,WeatherDisplay:10.37,2013-01-18 17:54:00,
2013-01-18 09:55:00,44.1,32.3,30.27,NW,310,0.0,0.0,63,0.00,SCT,,0.00,WeatherDisplay:10.37,2013-01-18 17:55:00,
2013-01-18 09:59:00,44.5,32.7,30.27,NW,310,0.0,0.0,63,0.00,SCT,,0.00,WeatherDisplay:10.37,2013-01-18 17:59:00,
2013-01-18 10:00:00,44.5,32.7,30.27,NW,310,0.0,0.0,63,0.00,SCT,,0.00,WeatherDisplay:10.37,2013-01-18 18:00:00,
2013-01-18 10:04:00,44.9,32.3,30.27,NW,310,0.0,0.0,61,0.00,SCT,,0.00,WeatherDisplay:10.37,2013-01-18 18:04:00,
2013-01-18 10:05:00,45.0,32.3,30.27,NW,310,0.0,0.0,61,0.00,SCT,,0.00,WeatherDisplay:10.37,2013-01-18 18:05:00,
2013-01-18 10:09:00,45.4,32.7,30.27,NW,310,0.0,0.0,61,0.00,SCT,,0.00,WeatherDisplay:10.37,2013-01-18 18:09:00,
2013-01-18 10:10:00,45.4,32.7,30.27,NW,310,0.0,0.0,61,0.00,SCT,,0.00,WeatherDisplay:10.37,2013-01-18 18:10:00,
2013-01-18 10:14:00,45.8,32.7,30.27,NW,323,0.0,0.0,60,0.00,SCT,,0.00,WeatherDisplay:10.37,2013-01-18 18:14:00,
2013-01-18 10:15:00,45.9,32.8,30.27,NNW,341,0.0,0.0,60,0.00,SCT,,0.00,WeatherDisplay:10.37,2013-01-18 18:15:00,
2013-01-18 10:19:00,46.4,32.8,30.27,NNW,341,0.0,0.0,59,0.00,SCT,,0.00,WeatherDisplay:10.37,2013-01-18 18:19:00,
2013-01-18 10:20:00,46.5,32.9,30.27,NNW,341,0.0,0.0,59,0.00,SCT,,0.00,WeatherDisplay:10.37,2013-01-18 18:20:00,
2013-01-18 10:24:00,47.0,33.0,30.26,WNW,293,0.0,0.0,58,0.00,SCT,,0.00,WeatherDisplay:10.37,2013-01-18 18:24:00,
2013-01-18 10:25:00,47.1,33.1,30.26,WNW,293,0.0,0.0,58,0.00,SCT,,0.00,WeatherDisplay:10.37,2013-01-18 18:25:00,
2013-01-18 10:29:00,47.3,32.4,30.26,WNW,299,0.0,0.0,56,0.00,SCT,,0.00,WeatherDisplay:10.37,2013-01-18 18:29:00,
2013-01-18 10:30:00,47.3,32.8,30.26,WNW,299,0.0,0.0,57,0.00,SCT,,0.00,WeatherDisplay:10.37,2013-01-18 18:30:00,
2013-01-18 10:35:00,47.6,33.1,30.26,NW,314,0.0,0.0,57,0.00,SCT,,0.00,WeatherDisplay:10.37,2013-01-18 18:35:00,
2013-01-18 10:40:00,47.9,32.9,30.26,NW,314,0.0,0.0,56,0.00,SCT,,0.00,WeatherDisplay:10.37,2013-01-18 18:40:00,
2013-01-18 10:45:00,48.6,32.7,30.26,NW,307,0.0,0.0,54,0.00,SCT,,0.00,WeatherDisplay:10.37,2013-01-18 18:45:00,
2013-01-18 10:50:00,49.1,33.2,30.25,NW,305,0.0,0.0,54,0.00,SCT,,0.00,WeatherDisplay:10.37,2013-01-18 18:50:00,
2013-01-18 10:55:00,49.1,33.2,30.25,NW,305,0.0,0.0,54,0.00,SCT,,0.00,WeatherDisplay:10.37,2013-01-18 18:55:00,
2013-01-18 10:56:00,49.1,33.2,30.25,NW,305,0.0,0.0,54,0.00,SCT,,0.00,WeatherDisplay:10.37,2013-01-18 18:56:00,
2013-01-18 11:00:00,49.3,33.3,30.25,NNW,330,0.0,0.0,54,0.00,SCT,,0.00,WeatherDisplay:10.37,2013-01-18 19:00:00,
2013-01-18 11:01:00,49.3,33.3,30.25,NNW,333,0.0,0.0,54,0.00,SCT,,0.00,WeatherDisplay:10.37,2013-01-18 19:01:00,
2013-01-18 11:05:00,49.6,33.2,30.25,North,6,0.0,0.0,53,0.00,SCT,,0.00,WeatherDisplay:10.37,2013-01-18 19:05:00,
2013-01-18 11:06:00,49.7,32.8,30.25,North,6,0.0,0.0,52,0.00,SCT,,0.00,WeatherDisplay:10.37,2013-01-18 19:06:00,
2013-01-18 11:10:00,50.1,33.6,30.25,North,6,0.0,0.0,53,0.00,SCT,,0.00,WeatherDisplay:10.37,2013-01-18 19:10:00,
2013-01-18 11:11:00,50.1,33.6,30.25,North,6,0.0,0.0,53,0.00,SCT,,0.00,WeatherDisplay:10.37,2013-01-18 19:11:00,
2013-01-18 11:15:00,50.4,33.4,30.25,North,6,0.0,0.0,52,0.00,SCT,,0.00,WeatherDisplay:10.37,2013-01-18 19:15:00,
2013-01-18 11:16:00,50.4,32.9,30.25,North,6,0.0,0.0,51,0.00,SCT,,0.00,WeatherDisplay:10.37,2013-01-18 19:16:00,
2013-01-18 11:20:00,50.8,33.3,30.24,NW,321,0.0,0.0,51,0.00,SCT,,0.00,WeatherDisplay:10.37,2013-01-18 19:20:00,
2013-01-18 11:21:00,50.8,32.8,30.24,NW,321,0.0,0.0,50,0.00,SCT,,0.00,WeatherDisplay:10.37,2013-01-18 19:21:00,
2013-01-18 11:25:00,51.2,33.2,30.24,NW,321,0.0,0.0,50,0.00,SCT,,0.00,WeatherDisplay:10.37,2013-01-18 19:25:00,
2013-01-18 11:26:00,51.2,33.2,30.24,NW,321,0.0,0.0,50,0.00,SCT,,0.00,WeatherDisplay:10.37,2013-01-18 19:26:00,
2013-01-18 11:30:00,51.7,33.1,30.24,NW,321,0.0,0.0,49,0.00,SCT,,0.00,WeatherDisplay:10.37,2013-01-18 19:30:00,
2013-01-18 11:31:00,51.8,33.2,30.24,NW,321,0.0,0.0,49,0.00,SCT,,0.00,WeatherDisplay:10.37,2013-01-18 19:31:00,
2013-01-18 11:35:00,52.3,33.2,30.23,WNW,297,0.0,0.0,48,0.00,SCT,,0.00,WeatherDisplay:10.37,2013-01-18 19:35:00,
2013-01-18 11:36:00,52.3,33.2,30.23,WNW,297,0.0,0.0,48,0.00,SCT,,0.00,WeatherDisplay:10.37,2013-01-18 19:36:00,
2013-01-18 11:41:00,52.9,33.7,30.24,WNW,296,0.0,0.0,48,0.00,SCT,,0.00,WeatherDisplay:10.37,2013-01-18 19:41:00,
2013-01-18 11:46:00,53.3,33.0,30.23,WNW,290,0.0,0.0,46,0.00,SCT,,0.00,WeatherDisplay:10.37,2013-01-18 19:46:00,
2013-01-18 11:51:00,53.5,33.2,30.23,WNW,301,0.0,0.0,46,0.00,SCT,,0.00,WeatherDisplay:10.37,2013-01-18 19:51:00,
2013-01-18 11:56:00,53.7,32.8,30.23,NW,307,0.0,0.0,45,0.00,SCT,,0.00,WeatherDisplay:10.37,2013-01-18 19:56:00,
2013-01-18 12:01:00,54.0,32.6,30.22,WNW,285,0.0,0.0,44,0.00,SCT,,0.00,WeatherDisplay:10.37,2013-01-18 20:01:00,
2013-01-18 12:06:00,54.1,32.6,30.22,NW,307,0.0,0.0,44,0.00,SCT,,0.00,WeatherDisplay:10.37,2013-01-18 20:06:00,
2013-01-18 12:11:00,54.5,33.0,30.21,NW,307,0.0,0.0,44,0.00,SCT,,0.00,WeatherDisplay:10.37,2013-01-18 20:11:00,
2013-01-18 12:12:00,54.5,32.4,30.22,NW,307,0.0,0.0,43,0.00,SCT,,0.00,WeatherDisplay:10.37,2013-01-18 20:12:00,
2013-01-18 12:16:00,54.5,32.4,30.21,NW,307,0.0,0.0,43,0.00,SCT,,0.00,WeatherDisplay:10.37,2013-01-18 20:16:00,
2013-01-18 12:17:00,54.5,32.4,30.22,NW,307,0.0,0.0,43,0.00,SCT,,0.00,WeatherDisplay:10.37,2013-01-18 20:17:00,
2013-01-18 12:21:00,55.1,31.8,30.21,WNW,301,0.0,0.0,41,0.00,SCT,,0.00,WeatherDisplay:10.37,2013-01-18 20:21:00,
2013-01-18 12:22:00,55.2,31.3,30.21,WNW,301,0.0,0.0,40,0.00,SCT,,0.00,WeatherDisplay:10.37,2013-01-18 20:22:00,
2013-01-18 12:26:00,55.1,31.2,30.21,West,261,0.0,0.0,40,0.00,SCT,,0.00,WeatherDisplay:10.37,2013-01-18 20:26:00,
2013-01-18 12:27:00,55.1,31.8,30.20,WNW,294,0.0,0.0,41,0.00,SCT,,0.00,WeatherDisplay:10.37,2013-01-18 20:27:00,
2013-01-18 12:31:00,55.7,30.5,30.20,West,272,0.0,0.0,38,0.00,SCT,,0.00,WeatherDisplay:10.37,2013-01-18 20:31:00,
2013-01-18 12:32:00,55.7,30.5,30.21,West,259,0.0,0.0,38,0.00,SCT,,0.00,WeatherDisplay:10.37,2013-01-18 20:32:00,
2013-01-18 12:36:00,55.8,30.5,30.20,NW,304,0.0,0.0,38,0.00,SCT,,0.00,WeatherDisplay:10.37,2013-01-18 20:36:00,
2013-01-18 12:37:00,55.8,30.5,30.20,NW,304,0.0,0.0,38,0.00,SCT,,0.00,WeatherDisplay:10.37,2013-01-18 20:37:00,
2013-01-18 12:41:00,56.0,30.1,30.20,WNW,299,0.0,0.0,37,0.00,SCT,,0.00,WeatherDisplay:10.37,2013-01-18 20:41:00,
2013-01-18 12:42:00,56.0,30.1,30.20,WNW,299,0.0,0.0,37,0.00,SCT,,0.00,WeatherDisplay:10.37,2013-01-18 20:42:00,
2013-01-18 12:46:00,55.9,30.0,30.20,West,274,0.0,0.0,37,0.00,SCT,,0.00,WeatherDisplay:10.37,2013-01-18 20:46:00,
2013-01-18 12:47:00,55.9,30.0,30.20,West,269,0.0,0.0,37,0.00,SCT,,0.00,WeatherDisplay:10.37,2013-01-18 20:47:00,
2013-01-18 12:48:00,56.0,28.7,30.20,WNW,300,0.0,0.0,35,0.00,SCT,,0.00,WeatherDisplay:10.37,2013-01-18 20:48:00,
2013-01-18 12:52:00,56.3,29.0,30.19,WNW,288,0.0,0.0,35,0.00,SCT,,0.00,WeatherDisplay:10.37,2013-01-18 20:52:00,
2013-01-18 12:53:00,56.4,29.7,30.20,WNW,288,0.0,0.0,36,0.00,SCT,,0.00,WeatherDisplay:10.37,2013-01-18 20:53:00,
2013-01-18 12:57:00,56.6,27.8,30.19,NW,314,0.0,0.0,33,0.00,SCT,,0.00,WeatherDisplay:10.37,2013-01-18 20:57:00,
2013-01-18 12:58:00,56.7,27.9,30.20,NW,314,0.0,0.0,33,0.00,SCT,,0.00,WeatherDisplay:10.37,2013-01-18 20:58:00,
2013-01-18 13:02:00,56.9,28.1,30.19,NW,307,0.0,0.0,33,0.00,SCT,,0.00,WeatherDisplay:10.37,2013-01-18 21:02:00,
2013-01-18 13:03:00,57.0,28.1,30.19,WNW,300,0.0,0.0,33,0.00,SCT,,0.00,WeatherDisplay:10.37,2013-01-18 21:03:00,
2013-01-18 13:07:00,57.1,28.2,30.19,WNW,299,0.0,0.0,33,0.00,SCT,,0.00,WeatherDisplay:10.37,2013-01-18 21:07:00,
2013-01-18 13:08:00,57.0,28.1,30.19,WNW,299,0.0,0.0,33,0.00,SCT,,0.00,WeatherDisplay:10.37,2013-01-18 21:08:00,
2013-01-18 13:12:00,57.3,28.4,30.19,WNW,299,0.0,0.0,33,0.00,SCT,,0.00,WeatherDisplay:10.37,2013-01-18 21:12:00,
2013-01-18 13:13:00,57.4,28.5,30.19,WNW,299,0.0,0.0,33,0.00,SCT,,0.00,WeatherDisplay:10.37,2013-01-18 21:13:00,
2013-01-18 13:17:00,57.8,28.1,30.19,WNW,292,0.0,0.0,32,0.00,SCT,,0.00,WeatherDisplay:10.37,2013-01-18 21:17:00,
2013-01-18 13:18:00,57.8,28.9,30.19,WNW,292,0.0,0.0,33,0.00,SCT,,0.00,WeatherDisplay:10.37,2013-01-18 21:18:00,
2013-01-18 13:22:00,57.7,27.2,30.19,West,266,0.0,0.0,31,0.00,SCT,,0.00,WeatherDisplay:10.37,2013-01-18 21:22:00,
2013-01-18 13:23:00,57.8,28.1,30.19,West,266,0.0,0.0,32,0.00,SCT,,0.00,WeatherDisplay:10.37,2013-01-18 21:23:00,
2013-01-18 13:27:00,58.0,27.5,30.19,WNW,297,0.0,0.0,31,0.00,SCT,,0.00,WeatherDisplay:10.37,2013-01-18 21:27:00,
2013-01-18 13:28:00,58.0,27.5,30.19,WNW,297,0.0,0.0,31,0.00,SCT,,0.00,WeatherDisplay:10.37,2013-01-18 21:28:00,
2013-01-18 13:32:00,58.1,28.4,30.18,WNW,284,0.0,0.0,32,0.00,SCT,,0.00,WeatherDisplay:10.37,2013-01-18 21:32:00,
2013-01-18 13:33:00,58.1,27.6,30.18,WNW,284,0.0,0.0,31,0.00,SCT,,0.00,WeatherDisplay:10.37,2013-01-18 21:33:00,
2013-01-18 13:37:00,58.2,27.7,30.18,West,260,0.0,0.0,31,0.00,SCT,,0.00,WeatherDisplay:10.37,2013-01-18 21:37:00,
2013-01-18 13:38:00,58.2,28.5,30.18,West,264,0.0,0.0,32,0.00,SCT,,0.00,WeatherDisplay:10.37,2013-01-18 21:38:00,
2013-01-18 13:42:00,58.4,27.9,30.18,WNW,299,0.0,0.0,31,0.00,SCT,,0.00,WeatherDisplay:10.37,2013-01-18 21:42:00,
2013-01-18 13:43:00,58.4,27.9,30.18,WNW,300,0.0,0.0,31,0.00,SCT,,0.00,WeatherDisplay:10.37,2013-01-18 21:43:00,
2013-01-18 13:47:00,58.4,27.9,30.18,WSW,256,0.0,0.0,31,0.00,SCT,,0.00,WeatherDisplay:10.37,2013-01-18 21:47:00,
2013-01-18 13:48:00,58.4,27.9,30.18,WSW,256,0.0,0.0,31,0.00,SCT,,0.00,WeatherDisplay:10.37,2013-01-18 21:48:00,
2013-01-18 13:53:00,58.9,26.7,30.18,WNW,297,1.1,1.4,29,0.00,SCT,,0.00,WeatherDisplay:10.37,2013-01-18 21:53:00,
2013-01-18 13:58:00,58.9,26.7,30.18,WNW,286,1.1,1.1,29,0.00,SCT,,0.00,WeatherDisplay:10.37,2013-01-18 21:58:00,
2013-01-18 14:03:00,58.9,27.5,30.18,West,268,3.5,3.5,30,0.00,SCT,,0.00,WeatherDisplay:10.37,2013-01-18 22:03:00,
2013-01-18 14:04:00,58.9,27.5,30.18,West,265,3.5,3.5,30,0.00,SCT,,0.00,WeatherDisplay:10.37,2013-01-18 22:04:00,
2013-01-18 14:08:00,58.8,26.6,30.18,West,261,1.1,1.1,29,0.00,SCT,,0.00,WeatherDisplay:10.37,2013-01-18 22:08:00,
2013-01-18 14:09:00,58.9,26.7,30.18,WNW,295,2.0,2.0,29,0.00,SCT,,0.00,WeatherDisplay:10.37,2013-01-18 22:09:00,
2013-01-18 14:13:00,59.1,26.0,30.18,WNW,303,3.5,3.5,28,0.00,SCT,,0.00,WeatherDisplay:10.37,2013-01-18 22:13:00,
2013-01-18 14:14:00,59.1,26.8,30.17,West,264,3.5,3.5,29,0.00,SCT,,0.00,WeatherDisplay:10.37,2013-01-18 22:14:00,
2013-01-18 14:18:00,59.2,26.1,30.17,WNW,294,1.1,1.1,28,0.00,SCT,,0.00,WeatherDisplay:10.37,2013-01-18 22:18:00,
2013-01-18 14:19:00,59.2,26.9,30.17,WNW,290,1.1,1.1,29,0.00,SCT,,0.00,WeatherDisplay:10.37,2013-01-18 22:19:00,
2013-01-18 14:23:00,59.6,25.5,30.17,West,269,1.1,1.1,27,0.00,SCT,,0.00,WeatherDisplay:10.37,2013-01-18 22:23:00,
2013-01-18 14:24:00,59.7,25.6,30.17,West,269,0.0,0.0,27,0.00,SCT,,0.00,WeatherDisplay:10.37,2013-01-18 22:24:00,
2013-01-18 14:28:00,59.9,26.7,30.17,WNW,289,3.5,3.5,28,0.00,SCT,,0.00,WeatherDisplay:10.37,2013-01-18 22:28:00,
2013-01-18 14:29:00,59.9,25.8,30.17,WNW,286,3.5,3.5,27,0.00,SCT,,0.00,WeatherDisplay:10.37,2013-01-18 22:29:00,
2013-01-18 14:33:00,59.7,27.4,30.17,West,269,2.0,2.0,29,0.00,SCT,,0.00,WeatherDisplay:10.37,2013-01-18 22:33:00,
2013-01-18 14:34:00,59.6,27.3,30.17,West,266,1.1,1.1,29,0.00,SCT,,0.00,WeatherDisplay:10.37,2013-01-18 22:34:00,
2013-01-18 14:38:00,59.5,27.2,30.17,West,270,1.1,1.1,29,0.00,SCT,,0.00,WeatherDisplay:10.37,2013-01-18 22:38:00,
2013-01-18 14:39:00,59.5,27.2,30.17,West,270,1.1,0.0,29,0.00,SCT,,0.00,WeatherDisplay:10.37,2013-01-18 22:39:00,
2013-01-18 14:43:00,59.6,27.3,30.17,WNW,303,3.5,3.5,29,0.00,SCT,,0.00,WeatherDisplay:10.37,2013-01-18 22:43:00,
2013-01-18 14:44:00,59.6,27.3,30.17,WNW,303,3.5,3.5,29,0.00,SCT,,0.00,WeatherDisplay:10.37,2013-01-18 22:44:00,
2013-01-18 14:48:00,59.9,26.7,30.17,WNW,301,2.3,2.3,28,0.00,SCT,,0.00,WeatherDisplay:10.37,2013-01-18 22:48:00,
2013-01-18 14:49:00,59.9,26.7,30.17,WNW,301,2.3,2.3,28,0.00,SCT,,0.00,WeatherDisplay:10.37,2013-01-18 22:49:00,
2013-01-18 14:53:00,60.0,26.8,30.17,WNW,295,1.1,1.1,28,0.00,SCT,,0.00,WeatherDisplay:10.37,2013-01-18 22:53:00,
2013-01-18 14:54:00,60.0,26.8,30.17,WNW,295,1.1,1.1,28,0.00,SCT,,0.00,WeatherDisplay:10.37,2013-01-18 22:54:00,
2013-01-18 14:58:00,60.1,26.9,30.16,WNW,297,2.3,0.0,28,0.00,SCT,,0.00,WeatherDisplay:10.37,2013-01-18 22:58:00,
2013-01-18 14:59:00,60.1,26.9,30.16,WNW,297,2.3,0.0,28,0.00,SCT,,0.00,WeatherDisplay:10.37,2013-01-18 22:59:00,
2013-01-18 15:04:00,60.2,26.9,30.17,WNW,303,2.3,2.3,28,0.00,SCT,,0.00,WeatherDisplay:10.37,2013-01-18 23:04:00,
2013-01-18 15:05:00,60.2,26.9,30.17,West,263,2.3,0.0,28,0.00,SCT,,0.00,WeatherDisplay:10.37,2013-01-18 23:05:00,
2013-01-18 15:09:00,60.3,26.1,30.17,West,273,1.1,1.1,27,0.00,SCT,,0.00,WeatherDisplay:10.37,2013-01-18 23:09:00,
2013-01-18 15:10:00,60.3,26.1,30.17,West,273,0.0,0.0,27,0.00,SCT,,0.00,WeatherDisplay:10.37,2013-01-18 23:10:00,
2013-01-18 15:14:00,60.3,27.0,30.17,WNW,302,4.6,4.6,28,0.00,SCT,,0.00,WeatherDisplay:10.37,2013-01-18 23:14:00,
2013-01-18 15:15:00,60.4,26.2,30.17,WNW,302,2.3,2.3,27,0.00,SCT,,0.00,WeatherDisplay:10.37,2013-01-18 23:15:00,
2013-01-18 15:19:00,60.4,26.2,30.17,WNW,302,1.1,1.1,27,0.00,SCT,,0.00,WeatherDisplay:10.37,2013-01-18 23:19:00,
2013-01-18 15:20:00,60.4,26.2,30.17,WNW,302,1.1,0.0,27,0.00,SCT,,0.00,WeatherDisplay:10.37,2013-01-18 23:20:00,
2013-01-18 15:24:00,60.7,26.5,30.17,WNW,298,2.3,2.3,27,0.00,SCT,,0.00,WeatherDisplay:10.37,2013-01-18 23:24:00,
2013-01-18 15:25:00,60.7,26.5,30.17,WNW,302,2.3,2.3,27,0.00,SCT,,0.00,WeatherDisplay:10.37,2013-01-18 23:25:00,
2013-01-18 15:29:00,60.6,26.4,30.17,NW,304,3.5,3.5,27,0.00,SCT,,0.00,WeatherDisplay:10.37,2013-01-18 23:29:00,
2013-01-18 15:30:00,60.5,26.3,30.17,West,274,3.5,3.5,27,0.00,SCT,,0.00,WeatherDisplay:10.37,2013-01-18 23:30:00,
2013-01-18 15:34:00,60.6,26.4,30.17,WNW,300,3.0,3.0,27,0.00,SCT,,0.00,WeatherDisplay:10.37,2013-01-18 23:34:00,
2013-01-18 15:35:00,60.6,26.4,30.17,WNW,294,3.5,3.5,27,0.00,SCT,,0.00,WeatherDisplay:10.37,2013-01-18 23:35:00,
2013-01-18 15:39:00,60.5,26.3,30.17,WNW,284,4.6,4.6,27,0.00,SCT,,0.00,WeatherDisplay:10.37,2013-01-18 23:39:00,
2013-01-18 15:40:00,60.5,26.3,30.17,WNW,298,4.6,4.6,27,0.00,SCT,,0.00,WeatherDisplay:10.37,2013-01-18 23:40:00,
2013-01-18 15:44:00,60.3,26.1,30.17,NW,306,4.6,4.6,27,0.00,SCT,,0.00,WeatherDisplay:10.37,2013-01-18 23:44:00,
2013-01-18 15:45:00,60.3,26.1,30.17,NW,307,4.6,4.6,27,0.00,SCT,,0.00,WeatherDisplay:10.37,2013-01-18 23:45:00,
2013-01-18 15:49:00,60.3,26.1,30.17,WNW,303,1.1,0.0,27,0.00,SCT,,0.00,WeatherDisplay:10.37,2013-01-18 23:49:00,
2013-01-18 15:50:00,60.3,26.1,30.17,WNW,303,1.1,0.0,27,0.00,SCT,,0.00,WeatherDisplay:10.37,2013-01-18 23:50:00,
2013-01-18 15:54:00,60.1,26.9,30.17,WNW,300,3.5,3.5,28,0.00,SCT,,0.00,WeatherDisplay:10.37,2013-01-18 23:54:00,
2013-01-18 15:55:00,60.1,26.9,30.17,NW,306,3.5,3.5,28,0.00,SCT,,0.00,WeatherDisplay:10.37,2013-01-18 23:55:00,
2013-01-18 16:00:00,60.0,26.8,30.17,WNW,300,3.5,3.5,28,0.00,SCT,,0.00,WeatherDisplay:10.37,2013-01-19 00:00:00,
2013-01-18 16:05:00,59.9,26.7,30.17,WNW,303,3.5,3.5,28,0.00,SCT,,0.00,WeatherDisplay:10.37,2013-01-19 00:05:00,
2013-01-18 16:10:00,59.8,25.7,30.16,WNW,299,1.1,1.1,27,0.00,SCT,,0.00,WeatherDisplay:10.37,2013-01-19 00:10:00,
2013-01-18 16:15:00,59.6,25.5,30.17,WNW,300,1.1,1.1,27,0.00,SCT,,0.00,WeatherDisplay:10.37,2013-01-19 00:15:00,
2013-01-18 16:20:00,59.4,26.2,30.17,NW,310,1.1,1.1,28,0.00,SCT,,0.00,WeatherDisplay:10.37,2013-01-19 00:20:00,
2013-01-18 16:25:00,59.1,26.0,30.17,WNW,293,1.1,1.1,28,0.00,SCT,,0.00,WeatherDisplay:10.37,2013-01-19 00:25:00,
2013-01-18 16:30:00,59.0,25.9,30.17,WNW,293,1.1,0.0,28,0.00,SCT,,0.00,WeatherDisplay:10.37,2013-01-19 00:30:00,
2013-01-18 16:31:00,59.0,25.9,30.17,WNW,293,1.1,0.0,28,0.00,SCT,,0.00,WeatherDisplay:10.37,2013-01-19 00:31:00,
2013-01-18 16:35:00,58.7,25.6,30.17,WNW,293,0.0,0.0,28,0.00,SCT,,0.00,WeatherDisplay:10.37,2013-01-19 00:35:00,
2013-01-18 16:36:00,58.6,25.6,30.17,WNW,293,0.0,0.0,28,0.00,SCT,,0.00,WeatherDisplay:10.37,2013-01-19 00:36:00,
2013-01-18 16:40:00,58.4,25.4,30.17,WNW,284,0.0,0.0,28,0.00,SCT,,0.00,WeatherDisplay:10.37,2013-01-19 00:40:00,
2013-01-18 16:41:00,58.4,25.4,30.17,WNW,284,0.0,0.0,28,0.00,SCT,,0.00,WeatherDisplay:10.37,2013-01-19 00:41:00,
2013-01-18 16:45:00,58.2,26.1,30.17,WNW,284,0.0,0.0,29,0.00,SCT,,0.00,WeatherDisplay:10.37,2013-01-19 00:45:00,
2013-01-18 16:46:00,58.1,26.0,30.17,WNW,284,0.0,0.0,29,0.00,SCT,,0.00,WeatherDisplay:10.37,2013-01-19 00:46:00,
2013-01-18 16:50:00,57.8,26.5,30.17,WNW,284,0.0,0.0,30,0.00,SCT,,0.00,WeatherDisplay:10.37,2013-01-19 00:50:00,
2013-01-18 16:51:00,57.8,26.5,30.17,WNW,284,0.0,0.0,30,0.00,SCT,,0.00,WeatherDisplay:10.37,2013-01-19 00:51:00,
2013-01-18 16:55:00,57.5,27.1,30.17,WNW,290,0.0,0.0,31,0.00,SCT,,0.00,WeatherDisplay:10.37,2013-01-19 00:55:00,
2013-01-18 16:56:00,57.5,27.1,30.17,WNW,290,0.0,0.0,31,0.00,SCT,,0.00,WeatherDisplay:10.37,2013-01-19 00:56:00,
2013-01-18 17:00:00,57.1,28.2,30.17,SW,235,0.0,0.0,33,0.00,SCT,,0.00,WeatherDisplay:10.37,2013-01-19 01:00:00,
2013-01-18 17:01:00,57.1,28.2,30.17,SW,235,0.0,0.0,33,0.00,SCT,,0.00,WeatherDisplay:10.37,2013-01-19 01:01:00,
2013-01-18 17:05:00,56.7,29.3,30.17,SW,235,0.0,0.0,35,0.00,SCT,,0.00,WeatherDisplay:10.37,2013-01-19 01:05:00,
2013-01-18 17:06:00,56.7,29.3,30.17,SW,235,0.0,0.0,35,0.00,SCT,,0.00,WeatherDisplay:10.37,2013-01-19 01:06:00,
2013-01-18 17:10:00,56.2,30.9,30.17,SW,235,0.0,0.0,38,0.00,SCT,,0.00,WeatherDisplay:10.37,2013-01-19 01:10:00,
2013-01-18 17:11:00,56.2,30.9,30.17,SW,235,0.0,0.0,38,0.00,SCT,,0.00,WeatherDisplay:10.37,2013-01-19 01:11:00,
2013-01-18 17:12:00,56.1,30.8,30.17,SW,235,0.0,0.0,38,0.00,SCT,,0.00,WeatherDisplay:10.37,2013-01-19 01:12:00,
2013-01-18 17:15:00,55.7,31.7,30.18,SW,235,0.0,0.0,40,0.00,SCT,,0.00,WeatherDisplay:10.37,2013-01-19 01:15:00,
2013-01-18 17:16:00,55.7,31.7,30.18,SW,235,0.0,0.0,40,0.00,SCT,,0.00,WeatherDisplay:10.37,2013-01-19 01:16:00,
2013-01-18 17:17:00,55.6,31.6,30.18,SW,235,0.0,0.0,40,0.00,SCT,,0.00,WeatherDisplay:10.37,2013-01-19 01:17:00,
2013-01-18 17:20:00,55.3,32.0,30.18,SW,235,0.0,0.0,41,0.00,SCT,,0.00,WeatherDisplay:10.37,2013-01-19 01:20:00,
2013-01-18 17:21:00,55.2,31.9,30.18,SW,235,0.0,0.0,41,0.00,SCT,,0.00,WeatherDisplay:10.37,2013-01-19 01:21:00,
2013-01-18 17:22:00,55.1,31.8,30.18,SW,235,0.0,0.0,41,0.00,SCT,,0.00,WeatherDisplay:10.37,2013-01-19 01:22:00,
2013-01-18 17:25:00,54.8,32.1,30.18,SW,235,0.0,0.0,42,0.00,SCT,,0.00,WeatherDisplay:10.37,2013-01-19 01:25:00,
2013-01-18 17:26:00,54.8,32.1,30.18,SW,235,0.0,0.0,42,0.00,SCT,,0.00,WeatherDisplay:10.37,2013-01-19 01:26:00,
2013-01-18 17:27:00,54.7,32.6,30.18,SW,235,0.0,0.0,43,0.00,SCT,,0.00,WeatherDisplay:10.37,2013-01-19 01:27:00,
2013-01-18 17:30:00,54.4,32.3,30.18,SW,235,0.0,0.0,43,0.00,SCT,,0.00,WeatherDisplay:10.37,2013-01-19 01:30:00,
2013-01-18 17:31:00,54.4,32.3,30.18,SW,235,0.0,0.0,43,0.00,SCT,,0.00,WeatherDisplay:10.37,2013-01-19 01:31:00,
2013-01-18 17:32:00,54.4,32.3,30.18,SW,235,0.0,0.0,43,0.00,SCT,,0.00,WeatherDisplay:10.37,2013-01-19 01:32:00,
2013-01-18 17:36:00,54.1,32.6,30.18,SW,235,0.0,0.0,44,0.00,SCT,,0.00,WeatherDisplay:10.37,2013-01-19 01:36:00,
2013-01-18 17:37:00,54.0,32.6,30.18,SW,235,0.0,0.0,44,0.00,SCT,,0.00,WeatherDisplay:10.37,2013-01-19 01:37:00,
2013-01-18 17:41:00,53.7,32.3,30.18,SW,235,0.0,0.0,44,0.00,SCT,,0.00,WeatherDisplay:10.37,2013-01-19 01:41:00,
2013-01-18 17:42:00,53.7,32.3,30.18,SW,235,0.0,0.0,44,0.00,SCT,,0.00,WeatherDisplay:10.37,2013-01-19 01:42:00,
2013-01-18 17:46:00,53.4,32.6,30.18,SW,235,0.0,0.0,45,0.00,SCT,,0.00,WeatherDisplay:10.37,2013-01-19 01:46:00,
2013-01-18 17:47:00,53.3,31.9,30.18,SW,235,0.0,0.0,44,0.00,SCT,,0.00,WeatherDisplay:10.37,2013-01-19 01:47:00,
2013-01-18 17:51:00,53.0,32.2,30.18,SW,235,0.0,0.0,45,0.00,SCT,,0.00,WeatherDisplay:10.37,2013-01-19 01:51:00,
2013-01-18 17:52:00,52.9,32.1,30.18,SW,235,0.0,0.0,45,0.00,SCT,,0.00,WeatherDisplay:10.37,2013-01-19 01:52:00,
2013-01-18 17:56:00,52.6,31.8,30.18,SW,235,0.0,0.0,45,0.00,SCT,,0.00,WeatherDisplay:10.37,2013-01-19 01:56:00,
2013-01-18 17:57:00,52.5,31.8,30.18,SW,235,0.0,0.0,45,0.00,SCT,,0.00,WeatherDisplay:10.37,2013-01-19 01:57:00,
2013-01-18 18:01:00,52.4,31.7,30.19,SW,235,0.0,0.0,45,0.00,SCT,,0.00,WeatherDisplay:10.37,2013-01-19 02:01:00,
2013-01-18 18:02:00,52.3,32.1,30.18,SW,235,0.0,0.0,46,0.00,SCT,,0.00,WeatherDisplay:10.37,2013-01-19 02:02:00,
2013-01-18 18:03:00,52.3,31.6,30.19,SW,235,0.0,0.0,45,0.00,SCT,,0.00,WeatherDisplay:10.37,2013-01-19 02:03:00,
2013-01-18 18:06:00,52.1,31.9,30.19,SW,235,0.0,0.0,46,0.00,SCT,,0.00,WeatherDisplay:10.37,2013-01-19 02:06:00,
2013-01-18 18:07:00,52.1,31.9,30.19,SW,235,0.0,0.0,46,0.00,SCT,,0.00,WeatherDisplay:10.37,2013-01-19 02:07:00,
2013-01-18 18:08:00,52.0,31.8,30.19,SW,235,0.0,0.0,46,0.00,SCT,,0.00,WeatherDisplay:10.37,2013-01-19 02:08:00,
2013-01-18 18:11:00,51.8,31.7,30.19,SW,235,0.0,0.0,46,0.00,SCT,,0.00,WeatherDisplay:10.37,2013-01-19 02:11:00,
2013-01-18 18:12:00,51.7,31.6,30.19,SW,235,0.0,0.0,46,0.00,SCT,,0.00,WeatherDisplay:10.37,2013-01-19 02:12:00,
2013-01-18 18:13:00,51.7,32.1,30.19,SW,235,0.0,0.0,47,0.00,SCT,,0.00,WeatherDisplay:10.37,2013-01-19 02:13:00,
2013-01-18 18:16:00,51.5,31.9,30.19,SW,235,0.0,0.0,47,0.00,SCT,,0.00,WeatherDisplay:10.37,2013-01-19 02:16:00,
2013-01-18 18:17:00,51.5,31.9,30.19,SW,235,0.0,0.0,47,0.00,SCT,,0.00,WeatherDisplay:10.37,2013-01-19 02:17:00,
2013-01-18 18:18:00,51.4,31.8,30.19,SW,235,0.0,0.0,47,0.00,SCT,,0.00,WeatherDisplay:10.37,2013-01-19 02:18:00,
2013-01-18 18:21:00,51.2,31.6,30.19,SW,235,0.0,0.0,47,0.00,SCT,,0.00,WeatherDisplay:10.37,2013-01-19 02:21:00,
2013-01-18 18:22:00,51.2,31.6,30.19,SW,235,0.0,0.0,47,0.00,SCT,,0.00,WeatherDisplay:10.37,2013-01-19 02:22:00,
2013-01-18 18:23:00,51.1,31.6,30.19,SW,235,0.0,0.0,47,0.00,SCT,,0.00,WeatherDisplay:10.37,2013-01-19 02:23:00,
2013-01-18 18:26:00,50.8,31.8,30.19,SW,235,0.0,0.0,48,0.00,SCT,,0.00,WeatherDisplay:10.37,2013-01-19 02:26:00,
2013-01-18 18:27:00,50.8,31.8,30.18,SW,235,0.0,0.0,48,0.00,SCT,,0.00,WeatherDisplay:10.37,2013-01-19 02:27:00,
2013-01-18 18:28:00,50.8,31.8,30.18,SW,235,0.0,0.0,48,0.00,SCT,,0.00,WeatherDisplay:10.37,2013-01-19 02:28:00,
2013-01-18 18:32:00,50.6,31.6,30.19,SW,235,0.0,0.0,48,0.00,SCT,,0.00,WeatherDisplay:10.37,2013-01-19 02:32:00,
2013-01-18 18:33:00,50.5,31.5,30.19,SW,235,0.0,0.0,48,0.00,SCT,,0.00,WeatherDisplay:10.37,2013-01-19 02:33:00,
2013-01-18 18:37:00,50.3,31.3,30.19,SW,235,0.0,0.0,48,0.00,SCT,,0.00,WeatherDisplay:10.37,2013-01-19 02:37:00,
2013-01-18 18:38:00,50.3,31.8,30.19,SW,235,0.0,0.0,49,0.00,SCT,,0.00,WeatherDisplay:10.37,2013-01-19 02:38:00,
2013-01-18 18:42:00,50.1,31.7,30.19,SW,235,0.0,0.0,49,0.00,SCT,,0.00,WeatherDisplay:10.37,2013-01-19 02:42:00,
2013-01-18 18:43:00,50.0,31.6,30.19,SW,235,0.0,0.0,49,0.00,SCT,,0.00,WeatherDisplay:10.37,2013-01-19 02:43:00,
2013-01-18 18:47:00,49.8,31.4,30.19,SW,235,0.0,0.0,49,0.00,SCT,,0.00,WeatherDisplay:10.37,2013-01-19 02:47:00,
2013-01-18 18:48:00,49.8,31.4,30.19,SW,235,0.0,0.0,49,0.00,SCT,,0.00,WeatherDisplay:10.37,2013-01-19 02:48:00,
2013-01-18 18:52:00,49.5,31.1,30.19,SW,235,0.0,0.0,49,0.00,SCT,,0.00,WeatherDisplay:10.37,2013-01-19 02:52:00,
2013-01-18 18:53:00,49.5,31.1,30.19,SW,235,0.0,0.0,49,0.00,SCT,,0.00,WeatherDisplay:10.37,2013-01-19 02:53:00,
2013-01-18 18:57:00,49.3,30.9,30.19,SW,235,0.0,0.0,49,0.00,SCT,,0.00,WeatherDisplay:10.37,2013-01-19 02:57:00,
2013-01-18 18:58:00,49.2,31.3,30.19,SW,235,0.0,0.0,50,0.00,SCT,,0.00,WeatherDisplay:10.37,2013-01-19 02:58:00,
2013-01-18 19:02:00,49.0,31.2,30.19,SW,235,0.0,0.0,50,0.00,SCT,,0.00,WeatherDisplay:10.37,2013-01-19 03:02:00,
2013-01-18 19:03:00,49.0,31.2,30.19,SW,235,0.0,0.0,50,0.00,SCT,,0.00,WeatherDisplay:10.37,2013-01-19 03:03:00,
2013-01-18 19:08:00,48.8,31.0,30.19,SW,235,0.0,0.0,50,0.00,SCT,,0.00,WeatherDisplay:10.37,2013-01-19 03:08:00,
2013-01-18 19:13:00,48.6,30.8,30.19,SW,235,0.0,0.0,50,0.00,SCT,,0.00,WeatherDisplay:10.37,2013-01-19 03:13:00,
2013-01-18 19:18:00,48.4,31.1,30.19,SW,235,0.0,0.0,51,0.00,SCT,,0.00,WeatherDisplay:10.37,2013-01-19 03:18:00,
2013-01-18 19:23:00,48.1,30.8,30.19,SW,235,0.0,0.0,51,0.00,SCT,,0.00,WeatherDisplay:10.37,2013-01-19 03:23:00,
2013-01-18 19:24:00,48.0,30.7,30.19,SW,235,0.0,0.0,51,0.00,SCT,,0.00,WeatherDisplay:10.37,2013-01-19 03:24:00,
2013-01-18 19:28:00,47.9,31.1,30.19,SW,235,0.0,0.0,52,0.00,SCT,,0.00,WeatherDisplay:10.37,2013-01-19 03:28:00,
2013-01-18 19:29:00,47.9,31.1,30.19,SW,235,0.0,0.0,52,0.00,SCT,,0.00,WeatherDisplay:10.37,2013-01-19 03:29:00,
2013-01-18 19:33:00,47.7,30.9,30.19,SW,235,0.0,0.0,52,0.00,SCT,,0.00,WeatherDisplay:10.37,2013-01-19 03:33:00,
2013-01-18 19:34:00,47.7,30.9,30.19,SW,235,0.0,0.0,52,0.00,SCT,,0.00,WeatherDisplay:10.37,2013-01-19 03:34:00,
2013-01-18 19:38:00,47.5,30.7,30.19,SW,235,0.0,0.0,52,0.00,SCT,,0.00,WeatherDisplay:10.37,2013-01-19 03:38:00,
2013-01-18 19:39:00,47.4,30.6,30.20,SW,235,0.0,0.0,52,0.00,SCT,,0.00,WeatherDisplay:10.37,2013-01-19 03:39:00,
2013-01-18 19:43:00,47.3,31.0,30.20,SW,235,0.0,0.0,53,0.00,SCT,,0.00,WeatherDisplay:10.37,2013-01-19 03:43:00,
2013-01-18 19:44:00,47.3,30.5,30.19,SW,235,0.0,0.0,52,0.00,SCT,,0.00,WeatherDisplay:10.37,2013-01-19 03:44:00,
2013-01-18 19:48:00,47.1,30.8,30.20,SW,235,0.0,0.0,53,0.00,SCT,,0.00,WeatherDisplay:10.37,2013-01-19 03:48:00,
2013-01-18 19:49:00,47.1,30.4,30.20,SW,235,0.0,0.0,52,0.00,SCT,,0.00,WeatherDisplay:10.37,2013-01-19 03:49:00,
2013-01-18 19:53:00,46.9,30.6,30.20,SW,235,0.0,0.0,53,0.00,SCT,,0.00,WeatherDisplay:10.37,2013-01-19 03:53:00,
2013-01-18 19:54:00,46.9,30.6,30.19,SW,235,0.0,0.0,53,0.00,SCT,,0.00,WeatherDisplay:10.37,2013-01-19 03:54:00,
2013-01-18 19:55:00,46.9,30.6,30.19,SW,235,0.0,0.0,53,0.00,SCT,,0.00,WeatherDisplay:10.37,2013-01-19 03:55:00,
2013-01-18 19:58:00,46.7,30.5,30.20,SW,235,0.0,0.0,53,0.00,SCT,,0.00,WeatherDisplay:10.37,2013-01-19 03:58:00,
2013-01-18 19:59:00,46.7,30.5,30.20,SW,235,0.0,0.0,53,0.00,SCT,,0.00,WeatherDisplay:10.37,2013-01-19 03:59:00,
2013-01-18 20:00:00,46.7,30.5,30.20,SW,235,0.0,0.0,53,0.00,SCT,,0.00,WeatherDisplay:10.37,2013-01-19 04:00:00,
2013-01-18 20:03:00,46.5,30.3,30.20,SW,235,0.0,0.0,53,0.00,SCT,,0.00,WeatherDisplay:10.37,2013-01-19 04:03:00,
2013-01-18 20:04:00,46.4,30.6,30.19,SW,235,0.0,0.0,54,0.00,SCT,,0.00,WeatherDisplay:10.37,2013-01-19 04:04:00,
2013-01-18 20:05:00,46.4,30.6,30.19,SW,235,0.0,0.0,54,0.00,SCT,,0.00,WeatherDisplay:10.37,2013-01-19 04:05:00,
2013-01-18 20:09:00,46.2,30.5,30.20,SW,235,0.0,0.0,54,0.00,SCT,,0.00,WeatherDisplay:10.37,2013-01-19 04:09:00,
2013-01-18 20:10:00,46.1,30.4,30.20,SW,235,0.0,0.0,54,0.00,SCT,,0.00,WeatherDisplay:10.37,2013-01-19 04:10:00,
2013-01-18 20:14:00,46.0,30.3,30.20,SW,235,0.0,0.0,54,0.00,SCT,,0.00,WeatherDisplay:10.37,2013-01-19 04:14:00,
2013-01-18 20:15:00,46.0,30.3,30.19,SW,235,0.0,0.0,54,0.00,SCT,,0.00,WeatherDisplay:10.37,2013-01-19 04:15:00,
2013-01-18 20:19:00,45.9,30.2,30.20,SW,235,0.0,0.0,54,0.00,SCT,,0.00,WeatherDisplay:10.37,2013-01-19 04:19:00,
2013-01-18 20:20:00,45.8,30.1,30.20,SW,235,0.0,0.0,54,0.00,SCT,,0.00,WeatherDisplay:10.37,2013-01-19 04:20:00,
2013-01-18 20:24:00,45.6,30.3,30.20,SW,235,0.0,0.0,55,0.00,SCT,,0.00,WeatherDisplay:10.37,2013-01-19 04:24:00,
2013-01-18 20:25:00,45.6,29.9,30.20,SW,235,0.0,0.0,54,0.00,SCT,,0.00,WeatherDisplay:10.37,2013-01-19 04:25:00,
2013-01-18 20:29:00,45.3,30.1,30.20,SW,235,0.0,0.0,55,0.00,SCT,,0.00,WeatherDisplay:10.37,2013-01-19 04:29:00,
2013-01-18 20:30:00,45.3,30.1,30.20,SW,235,0.0,0.0,55,0.00,SCT,,0.00,WeatherDisplay:10.37,2013-01-19 04:30:00,
2013-01-18 20:34:00,45.1,29.9,30.20,SW,235,0.0,0.0,55,0.00,SCT,,0.00,WeatherDisplay:10.37,2013-01-19 04:34:00,
2013-01-18 20:35:00,45.1,29.9,30.20,SW,235,0.0,0.0,55,0.00,SCT,,0.00,WeatherDisplay:10.37,2013-01-19 04:35:00,
2013-01-18 20:39:00,44.9,29.7,30.20,SW,236,0.0,0.0,55,0.00,SCT,,0.00,WeatherDisplay:10.37,2013-01-19 04:39:00,
2013-01-18 20:40:00,44.8,29.6,30.20,SW,235,0.0,0.0,55,0.00,SCT,,0.00,WeatherDisplay:10.37,2013-01-19 04:40:00,
2013-01-18 20:44:00,44.7,30.0,30.20,SW,235,0.0,0.0,56,0.00,SCT,,0.00,WeatherDisplay:10.37,2013-01-19 04:44:00,
2013-01-18 20:45:00,44.7,30.0,30.20,SW,236,0.0,0.0,56,0.00,SCT,,0.00,WeatherDisplay:10.37,2013-01-19 04:45:00,
2013-01-18 20:49:00,44.5,29.8,30.20,SW,236,0.0,0.0,56,0.00,SCT,,0.00,WeatherDisplay:10.37,2013-01-19 04:49:00,
2013-01-18 20:50:00,44.5,29.8,30.20,SW,236,0.0,0.0,56,0.00,SCT,,0.00,WeatherDisplay:10.37,2013-01-19 04:50:00,
2013-01-18 20:54:00,44.3,29.6,30.20,SW,236,0.0,0.0,56,0.00,SCT,,0.00,WeatherDisplay:10.37,2013-01-19 04:54:00,
2013-01-18 20:55:00,44.3,29.6,30.20,SW,235,0.0,0.0,56,0.00,SCT,,0.00,WeatherDisplay:10.37,2013-01-19 04:55:00,
2013-01-18 20:59:00,44.1,29.8,30.20,SW,236,0.0,0.0,57,0.00,SCT,,0.00,WeatherDisplay:10.37,2013-01-19 04:59:00,
2013-01-18 21:00:00,44.1,29.4,30.20,SW,236,0.0,0.0,56,0.00,SCT,,0.00,WeatherDisplay:10.37,2013-01-19 05:00:00,
2013-01-18 21:01:00,44.0,29.7,30.20,SW,236,0.0,0.0,57,0.00,SCT,,0.00,WeatherDisplay:10.37,2013-01-19 05:01:00,
2013-01-18 21:02:00,44.0,29.7,30.20,SW,235,0.0,0.0,57,0.00,SCT,,0.00,WeatherDisplay:10.37,2013-01-19 05:02:00,
2013-01-18 21:03:00,44.0,29.3,30.20,SW,236,0.0,0.0,56,0.00,SCT,,0.00,WeatherDisplay:10.37,2013-01-19 05:03:00,
2013-01-18 21:05:00,43.9,29.6,30.20,SW,236,0.0,0.0,57,0.00,SCT,,0.00,WeatherDisplay:10.37,2013-01-19 05:05:00,
2013-01-18 21:06:00,43.8,29.5,30.20,SW,235,0.0,0.0,57,0.00,SCT,,0.00,WeatherDisplay:10.37,2013-01-19 05:06:00,
2013-01-18 21:07:00,43.8,29.5,30.20,SW,235,0.0,0.0,57,0.00,SCT,,0.00,WeatherDisplay:10.37,2013-01-19 05:07:00,
2013-01-18 21:08:00,43.7,29.5,30.20,SW,236,0.0,0.0,57,0.00,SCT,,0.00,WeatherDisplay:10.37,2013-01-19 05:08:00,
2013-01-18 21:10:00,43.7,29.5,30.20,SW,236,0.0,0.0,57,0.00,SCT,,0.00,WeatherDisplay:10.37,2013-01-19 05:10:00,
2013-01-18 21:11:00,43.7,29.5,30.20,SW,236,0.0,0.0,57,0.00,SCT,,0.00,WeatherDisplay:10.37,2013-01-19 05:11:00,
2013-01-18 21:12:00,43.6,29.4,30.20,SW,236,0.0,0.0,57,0.00,SCT,,0.00,WeatherDisplay:10.37,2013-01-19 05:12:00,
2013-01-18 21:13:00,43.6,29.4,30.20,SW,236,0.0,0.0,57,0.00,SCT,,0.00,WeatherDisplay:10.37,2013-01-19 05:13:00,
2013-01-18 21:15:00,43.6,29.4,30.20,SW,236,0.0,0.0,57,0.00,SCT,,0.00,WeatherDisplay:10.37,2013-01-19 05:15:00,
2013-01-18 21:16:00,43.6,29.4,30.20,SW,236,0.0,0.0,57,0.00,SCT,,0.00,WeatherDisplay:10.37,2013-01-19 05:16:00,
2013-01-18 21:17:00,43.6,29.4,30.20,SW,236,0.0,0.0,57,0.00,SCT,,0.00,WeatherDisplay:10.37,2013-01-19 05:17:00,
2013-01-18 21:18:00,43.5,29.3,30.20,SW,236,0.0,0.0,57,0.00,SCT,,0.00,WeatherDisplay:10.37,2013-01-19 05:18:00,
2013-01-18 21:20:00,43.4,29.2,30.20,SW,236,0.0,0.0,57,0.00,SCT,,0.00,WeatherDisplay:10.37,2013-01-19 05:20:00,
2013-01-18 21:21:00,43.4,29.2,30.20,SW,236,0.0,0.0,57,0.00,SCT,,0.00,WeatherDisplay:10.37,2013-01-19 05:21:00,
2013-01-18 21:22:00,43.4,29.2,30.20,SW,236,0.0,0.0,57,0.00,SCT,,0.00,WeatherDisplay:10.37,2013-01-19 05:22:00,
2013-01-18 21:23:00,43.3,29.1,30.20,SW,236,0.0,0.0,57,0.00,SCT,,0.00,WeatherDisplay:10.37,2013-01-19 05:23:00,
2013-01-18 21:26:00,43.2,29.0,30.20,SW,236,0.0,0.0,57,0.00,SCT,,0.00,WeatherDisplay:10.37,2013-01-19 05:26:00,
2013-01-18 21:27:00,43.2,29.0,30.20,SW,236,0.0,0.0,57,0.00,SCT,,0.00,WeatherDisplay:10.37,2013-01-19 05:27:00,
2013-01-18 21:28:00,43.1,28.9,30.20,SW,236,0.0,0.0,57,0.00,SCT,,0.00,WeatherDisplay:10.37,2013-01-19 05:28:00,
2013-01-18 21:31:00,43.1,28.9,30.20,SW,236,0.0,0.0,57,0.00,SCT,,0.00,WeatherDisplay:10.37,2013-01-19 05:31:00,
2013-01-18 21:32:00,43.0,28.8,30.20,SW,236,0.0,0.0,57,0.00,SCT,,0.00,WeatherDisplay:10.37,2013-01-19 05:32:00,
2013-01-18 21:33:00,43.0,29.2,30.20,SW,236,0.0,0.0,58,0.00,SCT,,0.00,WeatherDisplay:10.37,2013-01-19 05:33:00,
2013-01-18 21:36:00,42.9,28.7,30.20,SW,236,0.0,0.0,57,0.00,SCT,,0.00,WeatherDisplay:10.37,2013-01-19 05:36:00,
2013-01-18 21:37:00,42.9,28.7,30.20,SW,236,0.0,0.0,57,0.00,SCT,,0.00,WeatherDisplay:10.37,2013-01-19 05:37:00,
2013-01-18 21:38:00,42.9,28.7,30.20,SW,236,0.0,0.0,57,0.00,SCT,,0.00,WeatherDisplay:10.37,2013-01-19 05:38:00,
2013-01-18 21:41:00,42.7,28.5,30.20,SW,236,0.0,0.0,57,0.00,SCT,,0.00,WeatherDisplay:10.37,2013-01-19 05:41:00,
2013-01-18 21:42:00,42.7,28.9,30.20,SW,236,0.0,0.0,58,0.00,SCT,,0.00,WeatherDisplay:10.37,2013-01-19 05:42:00,
2013-01-18 21:43:00,42.7,28.9,30.20,SW,236,0.0,0.0,58,0.00,SCT,,0.00,WeatherDisplay:10.37,2013-01-19 05:43:00,
2013-01-18 21:46:00,42.6,28.8,30.20,SW,236,0.0,0.0,58,0.00,SCT,,0.00,WeatherDisplay:10.37,2013-01-19 05:46:00,
2013-01-18 21:47:00,42.5,28.8,30.20,SW,236,0.0,0.0,58,0.00,SCT,,0.00,WeatherDisplay:10.37,2013-01-19 05:47:00,
2013-01-18 21:48:00,42.5,28.8,30.20,SW,236,0.0,0.0,58,0.00,SCT,,0.00,WeatherDisplay:10.37,2013-01-19 05:48:00,
2013-01-18 21:49:00,42.4,28.7,30.20,SW,236,0.0,0.0,58,0.00,SCT,,0.00,WeatherDisplay:10.37,2013-01-19 05:49:00,
2013-01-18 21:51:00,42.3,28.6,30.20,SW,236,0.0,0.0,58,0.00,SCT,,0.00,WeatherDisplay:10.37,2013-01-19 05:51:00,
2013-01-18 21:53:00,42.3,28.6,30.20,SW,236,0.0,0.0,58,0.00,SCT,,0.00,WeatherDisplay:10.37,2013-01-19 05:53:00,
2013-01-18 21:54:00,42.3,28.6,30.20,SW,236,0.0,0.0,58,0.00,SCT,,0.00,WeatherDisplay:10.37,2013-01-19 05:54:00,
2013-01-18 21:57:00,42.2,28.5,30.20,SW,236,0.0,0.0,58,0.00,SCT,,0.00,WeatherDisplay:10.37,2013-01-19 05:57:00,
2013-01-18 21:58:00,42.2,28.5,30.20,SW,236,0.0,0.0,58,0.00,SCT,,0.00,WeatherDisplay:10.37,2013-01-19 05:58:00,
2013-01-18 21:59:00,42.1,28.4,30.20,SW,236,0.0,0.0,58,0.00,SCT,,0.00,WeatherDisplay:10.37,2013-01-19 05:59:00,
2013-01-18 22:02:00,42.1,28.4,30.21,SW,236,0.0,0.0,58,0.00,SCT,,0.00,WeatherDisplay:10.37,2013-01-19 06:02:00,
2013-01-18 22:03:00,42.0,28.3,30.20,SW,236,0.0,0.0,58,0.00,SCT,,0.00,WeatherDisplay:10.37,2013-01-19 06:03:00,
2013-01-18 22:04:00,42.0,28.3,30.20,SW,236,0.0,0.0,58,0.00,SCT,,0.00,WeatherDisplay:10.37,2013-01-19 06:04:00,
2013-01-18 22:07:00,41.9,28.2,30.20,SW,236,0.0,0.0,58,0.00,SCT,,0.00,WeatherDisplay:10.37,2013-01-19 06:07:00,
2013-01-18 22:08:00,41.9,28.6,30.20,SW,236,0.0,0.0,59,0.00,SCT,,0.00,WeatherDisplay:10.37,2013-01-19 06:08:00,
2013-01-18 22:09:00,41.9,28.6,30.20,SW,236,0.0,0.0,59,0.00,SCT,,0.00,WeatherDisplay:10.37,2013-01-19 06:09:00,
2013-01-18 22:12:00,41.8,28.1,30.20,SW,236,0.0,0.0,58,0.00,SCT,,0.00,WeatherDisplay:10.37,2013-01-19 06:12:00,
2013-01-18 22:13:00,41.8,28.5,30.20,SW,236,0.0,0.0,59,0.00,SCT,,0.00,WeatherDisplay:10.37,2013-01-19 06:13:00,
2013-01-18 22:14:00,41.8,28.5,30.20,SW,236,0.0,0.0,59,0.00,SCT,,0.00,WeatherDisplay:10.37,2013-01-19 06:14:00,
2013-01-18 22:17:00,41.6,28.3,30.20,SW,236,0.0,0.0,59,0.00,SCT,,0.00,WeatherDisplay:10.37,2013-01-19 06:17:00,
2013-01-18 22:18:00,41.6,28.3,30.21,SW,236,0.0,0.0,59,0.00,SCT,,0.00,WeatherDisplay:10.37,2013-01-19 06:18:00,
2013-01-18 22:19:00,41.6,28.3,30.20,SW,236,0.0,0.0,59,0.00,SCT,,0.00,WeatherDisplay:10.37,2013-01-19 06:19:00,
2013-01-18 22:22:00,41.5,28.2,30.20,SW,236,0.0,0.0,59,0.00,SCT,,0.00,WeatherDisplay:10.37,2013-01-19 06:22:00,
2013-01-18 22:23:00,41.5,28.2,30.20,SW,236,0.0,0.0,59,0.00,SCT,,0.00,WeatherDisplay:10.37,2013-01-19 06:23:00,
2013-01-18 22:24:00,41.5,28.2,30.20,SW,236,0.0,0.0,59,0.00,SCT,,0.00,WeatherDisplay:10.37,2013-01-19 06:24:00,
2013-01-18 22:27:00,41.4,28.1,30.20,SW,236,0.0,0.0,59,0.00,SCT,,0.00,WeatherDisplay:10.37,2013-01-19 06:27:00,
2013-01-18 22:28:00,41.4,28.1,30.20,SW,236,0.0,0.0,59,0.00,SCT,,0.00,WeatherDisplay:10.37,2013-01-19 06:28:00,
2013-01-18 22:29:00,41.4,28.1,30.20,SW,236,0.0,0.0,59,0.00,SCT,,0.00,WeatherDisplay:10.37,2013-01-19 06:29:00,
2013-01-18 22:33:00,41.3,28.4,30.20,SW,236,0.0,0.0,60,0.00,SCT,,0.00,WeatherDisplay:10.37,2013-01-19 06:33:00,
2013-01-18 22:34:00,41.2,27.9,30.20,SW,236,0.0,0.0,59,0.00,SCT,,0.00,WeatherDisplay:10.37,2013-01-19 06:34:00,
2013-01-18 22:38:00,41.1,28.3,30.20,SW,236,0.0,0.0,60,0.00,SCT,,0.00,WeatherDisplay:10.37,2013-01-19 06:38:00,
2013-01-18 22:39:00,41.1,28.3,30.20,SW,236,0.0,0.0,60,0.00,SCT,,0.00,WeatherDisplay:10.37,2013-01-19 06:39:00,
2013-01-18 22:43:00,41.0,28.2,30.21,SW,236,0.0,0.0,60,0.00,SCT,,0.00,WeatherDisplay:10.37,2013-01-19 06:43:00,
2013-01-18 22:44:00,41.0,28.2,30.20,SW,236,0.0,0.0,60,0.00,SCT,,0.00,WeatherDisplay:10.37,2013-01-19 06:44:00,
2013-01-18 22:48:00,40.9,28.1,30.21,SW,236,0.0,0.0,60,0.00,SCT,,0.00,WeatherDisplay:10.37,2013-01-19 06:48:00,
2013-01-18 22:49:00,40.8,28.0,30.20,SW,236,0.0,0.0,60,0.00,SCT,,0.00,WeatherDisplay:10.37,2013-01-19 06:49:00,
2013-01-18 22:53:00,40.7,27.9,30.21,SW,236,0.0,0.0,60,0.00,SCT,,0.00,WeatherDisplay:10.37,2013-01-19 06:53:00,
2013-01-18 22:54:00,40.7,27.9,30.21,SW,236,0.0,0.0,60,0.00,SCT,,0.00,WeatherDisplay:10.37,2013-01-19 06:54:00,
2013-01-18 22:58:00,40.6,27.8,30.21,SW,236,0.0,0.0,60,0.00,SCT,,0.00,WeatherDisplay:10.37,2013-01-19 06:58:00,
2013-01-18 22:59:00,40.6,27.8,30.21,SW,236,0.0,0.0,60,0.00,SCT,,0.00,WeatherDisplay:10.37,2013-01-19 06:59:00,
2013-01-18 23:03:00,40.4,27.6,30.21,SW,236,0.0,0.0,60,0.00,SCT,,0.00,WeatherDisplay:10.37,2013-01-19 07:03:00,
2013-01-18 23:04:00,40.3,27.9,30.21,SW,236,0.0,0.0,61,0.00,SCT,,0.00,WeatherDisplay:10.37,2013-01-19 07:04:00,
2013-01-18 23:08:00,40.2,27.8,30.21,SW,236,0.0,0.0,61,0.00,SCT,,0.00,WeatherDisplay:10.37,2013-01-19 07:08:00,
2013-01-18 23:09:00,40.2,27.8,30.21,SW,236,0.0,0.0,61,0.00,SCT,,0.00,WeatherDisplay:10.37,2013-01-19 07:09:00,
2013-01-18 23:13:00,40.1,27.7,30.21,SW,236,0.0,0.0,61,0.00,SCT,,0.00,WeatherDisplay:10.37,2013-01-19 07:13:00,
2013-01-18 23:14:00,40.1,27.7,30.21,SW,236,0.0,0.0,61,0.00,SCT,,0.00,WeatherDisplay:10.37,2013-01-19 07:14:00,
2013-01-18 23:15:00,40.1,27.7,30.21,SW,236,0.0,0.0,61,0.00,SCT,,0.00,WeatherDisplay:10.37,2013-01-19 07:15:00,
2013-01-18 23:19:00,40.0,27.6,30.21,SW,236,0.0,0.0,61,0.00,SCT,,0.00,WeatherDisplay:10.37,2013-01-19 07:19:00,
2013-01-18 23:20:00,39.9,27.5,30.21,SW,236,0.0,0.0,61,0.00,SCT,,0.00,WeatherDisplay:10.37,2013-01-19 07:20:00,
2013-01-18 23:24:00,39.8,27.8,30.21,SW,236,0.0,0.0,62,0.00,SCT,,0.00,WeatherDisplay:10.37,2013-01-19 07:24:00,
2013-01-18 23:25:00,39.8,27.4,30.21,SW,236,0.0,0.0,61,0.00,SCT,,0.00,WeatherDisplay:10.37,2013-01-19 07:25:00,
2013-01-18 23:29:00,39.8,27.4,30.21,SW,236,0.0,0.0,61,0.00,SCT,,0.00,WeatherDisplay:10.37,2013-01-19 07:29:00,
2013-01-18 23:30:00,39.8,27.4,30.21,SW,236,0.0,0.0,61,0.00,SCT,,0.00,WeatherDisplay:10.37,2013-01-19 07:30:00,
2013-01-18 23:34:00,39.7,27.7,30.21,SW,236,0.0,0.0,62,0.00,SCT,,0.00,WeatherDisplay:10.37,2013-01-19 07:34:00,
2013-01-18 23:35:00,39.7,27.3,30.21,SW,236,0.0,0.0,61,0.00,SCT,,0.00,WeatherDisplay:10.37,2013-01-19 07:35:00,
2013-01-18 23:39:00,39.6,27.6,30.21,SW,236,0.0,0.0,62,0.00,SCT,,0.00,WeatherDisplay:10.37,2013-01-19 07:39:00,
2013-01-18 23:40:00,39.6,27.2,30.20,SW,236,0.0,0.0,61,0.00,SCT,,0.00,WeatherDisplay:10.37,2013-01-19 07:40:00,
2013-01-18 23:44:00,39.4,27.1,30.21,SW,236,0.0,0.0,61,0.00,SCT,,0.00,WeatherDisplay:10.37,2013-01-19 07:44:00,
2013-01-18 23:45:00,39.4,27.1,30.20,SW,236,0.0,0.0,61,0.00,SCT,,0.00,WeatherDisplay:10.37,2013-01-19 07:45:00,
2013-01-18 23:49:00,39.3,27.4,30.20,SW,236,0.0,0.0,62,0.00,SCT,,0.00,WeatherDisplay:10.37,2013-01-19 07:49:00,
2013-01-18 23:50:00,39.3,27.0,30.20,SW,236,0.0,0.0,61,0.00,SCT,,0.00,WeatherDisplay:10.37,2013-01-19 07:50:00,
2013-01-18 23:54:00,39.2,27.3,30.20,SW,236,0.0,0.0,62,0.00,SCT,,0.00,WeatherDisplay:10.37,2013-01-19 07:54:00,
2013-01-18 23:55:00,39.2,26.9,30.20,SW,236,0.0,0.0,61,0.00,SCT,,0.00,WeatherDisplay:10.37,2013-01-19 07:55:00,